Time,TemperatureF,DewpointF,PressureIn,WindDirection,WindDirectionDegrees,WindSpeedMPH,WindSpeedGustMPH,Humidity,HourlyPrecipIn,Conditions,Clouds,dailyrainin,SoftwareType,DateUTC
2013-04-19 00:00:00,38.8,33.2,29.31,WNW,284,0.0,0.0,80,0.00,,,0.00,Wunderground v.1.15,2013-04-19 05:00:00,
2013-04-19 00:01:00,38.8,32.8,29.31,WSW,249,0.0,0.0,79,0.00,,,0.00,Wunderground v.1.15,2013-04-19 05:01:00,
2013-04-19 00:02:00,38.8,32.8,29.31,West,262,0.0,0.0,79,0.00,,,0.00,Wunderground v.1.15,2013-04-19 05:02:00,
2013-04-19 00:06:00,38.6,32.6,29.31,WNW,282,0.0,0.0,79,0.00,,,0.00,Wunderground v.1.15,2013-04-19 05:06:00,
2013-04-19 00:07:00,38.6,32.3,29.31,West,271,0.0,0.0,78,0.00,,,0.00,Wunderground v.1.15,2013-04-19 05:07:00,
2013-04-19 00:08:00,38.5,32.2,29.31,SW,236,0.0,0.0,78,0.00,,,0.00,Wunderground v.1.15,2013-04-19 05:08:00,
2013-04-19 00:11:00,38.5,32.2,29.31,WNW,282,0.0,0.0,78,0.00,,,0.00,Wunderground v.1.15,2013-04-19 05:11:00,
2013-04-19 00:14:00,38.3,32.0,29.31,West,259,0.0,0.0,78,0.00,,,0.00,Wunderground v.1.15,2013-04-19 05:14:00,
2013-04-19 00:15:00,38.2,31.9,29.31,WNW,288,0.0,0.0,78,0.00,,,0.00,Wunderground v.1.15,2013-04-19 05:15:00,
2013-04-19 00:17:00,38.2,31.6,29.31,WSW,248,0.0,0.0,77,0.00,,,0.00,Wunderground v.1.15,2013-04-19 05:17:00,
2013-04-19 00:19:00,38.0,31.4,29.31,WSW,240,0.0,0.0,77,0.00,,,0.00,Wunderground v.1.15,2013-04-19 05:19:00,
2013-04-19 00:20:00,38.0,31.7,29.31,NW,311,0.0,0.0,78,0.00,,,0.00,Wunderground v.1.15,2013-04-19 05:20:00,
2013-04-19 00:21:00,38.0,31.4,29.31,West,281,0.0,0.0,77,0.00,,,0.00,Wunderground v.1.15,2013-04-19 05:21:00,
2013-04-19 00:23:00,37.9,31.7,29.31,West,274,0.0,0.0,78,0.00,,,0.00,Wunderground v.1.15,2013-04-19 05:23:00,
2013-04-19 00:25:00,37.9,32.0,29.31,West,274,0.0,0.0,79,0.00,,,0.00,Wunderground v.1.15,2013-04-19 05:25:00,
2013-04-19 00:26:00,37.9,32.0,29.31,WSW,257,0.0,0.0,79,0.00,,,0.00,Wunderground v.1.15,2013-04-19 05:26:00,
2013-04-19 00:29:00,37.8,31.9,29.31,WSW,251,0.0,0.0,79,0.00,,,0.00,Wunderground v.1.15,2013-04-19 05:29:00,
2013-04-19 00:30:00,37.8,31.9,29.31,WNW,295,0.0,0.0,79,0.00,,,0.00,Wunderground v.1.15,2013-04-19 05:30:00,
2013-04-19 00:31:00,37.8,32.2,29.31,WNW,289,0.0,0.0,80,0.00,,,0.00,Wunderground v.1.15,2013-04-19 05:31:00,
2013-04-19 00:33:00,37.8,32.2,29.31,WNW,283,0.0,0.0,80,0.00,,,0.00,Wunderground v.1.15,2013-04-19 05:33:00,
2013-04-19 00:34:00,37.6,32.0,29.31,West,269,0.0,0.0,80,0.00,,,0.00,Wunderground v.1.15,2013-04-19 05:34:00,
2013-04-19 00:36:00,37.6,32.0,29.31,SW,233,0.0,0.0,80,0.00,,,0.00,Wunderground v.1.15,2013-04-19 05:36:00,
2013-04-19 00:37:00,37.6,32.0,29.31,West,264,0.0,0.0,80,0.00,,,0.00,Wunderground v.1.15,2013-04-19 05:37:00,
2013-04-19 00:39:00,37.5,31.6,29.31,West,275,0.0,0.0,79,0.00,,,0.00,Wunderground v.1.15,2013-04-19 05:39:00,
2013-04-19 00:40:00,37.5,31.6,29.31,West,262,0.0,0.0,79,0.00,,,0.00,Wunderground v.1.15,2013-04-19 05:40:00,
2013-04-19 00:41:00,37.3,31.4,29.31,WNW,294,0.0,0.0,79,0.00,,,0.00,Wunderground v.1.15,2013-04-19 05:41:00,
2013-04-19 00:42:00,37.3,31.4,29.31,West,272,0.0,0.0,79,0.00,,,0.00,Wunderground v.1.15,2013-04-19 05:42:00,
2013-04-19 00:43:00,37.3,31.4,29.31,WNW,300,0.0,0.0,79,0.00,,,0.00,Wunderground v.1.15,2013-04-19 05:43:00,
2013-04-19 00:44:00,37.3,31.4,29.31,NW,312,0.0,0.0,79,0.00,,,0.00,Wunderground v.1.15,2013-04-19 05:44:00,
2013-04-19 00:46:00,37.3,31.1,29.31,West,259,0.0,0.0,78,0.00,,,0.00,Wunderground v.1.15,2013-04-19 05:46:00,
2013-04-19 00:47:00,37.3,31.1,29.31,WNW,301,0.0,0.0,78,0.00,,,0.00,Wunderground v.1.15,2013-04-19 05:47:00,
2013-04-19 00:49:00,37.2,31.0,29.31,WSW,253,0.0,0.0,78,0.00,,,0.00,Wunderground v.1.15,2013-04-19 05:49:00,
2013-04-19 00:50:00,37.2,31.3,29.31,WSW,247,0.0,0.0,79,0.00,,,0.00,Wunderground v.1.15,2013-04-19 05:50:00,
2013-04-19 00:51:00,37.2,31.3,29.31,WSW,255,0.0,0.0,79,0.00,,,0.00,Wunderground v.1.15,2013-04-19 05:51:00,
2013-04-19 00:52:00,37.2,31.3,29.31,West,266,0.0,0.0,79,0.00,,,0.00,Wunderground v.1.15,2013-04-19 05:52:00,
2013-04-19 00:56:00,37.0,31.4,29.31,West,271,0.0,0.0,80,0.00,,,0.00,Wunderground v.1.15,2013-04-19 05:56:00,
2013-04-19 00:57:00,37.0,31.1,29.31,West,268,0.0,0.0,79,0.00,,,0.00,Wunderground v.1.15,2013-04-19 05:57:00,
2013-04-19 00:58:00,37.0,31.4,29.31,West,265,0.0,0.0,80,0.00,,,0.00,Wunderground v.1.15,2013-04-19 05:58:00,
2013-04-19 00:59:00,37.0,31.1,29.31,West,263,0.0,0.0,79,0.00,,,0.00,Wunderground v.1.15,2013-04-19 05:59:00,
2013-04-19 01:01:00,36.9,31.0,29.31,West,274,0.0,0.0,79,0.00,,,0.00,Wunderground v.1.15,2013-04-19 06:01:00,
2013-04-19 01:02:00,36.9,31.0,29.31,WSW,257,0.0,0.0,79,0.00,,,0.00,Wunderground v.1.15,2013-04-19 06:02:00,
2013-04-19 01:03:00,36.9,31.0,29.31,West,278,0.0,0.0,79,0.00,,,0.00,Wunderground v.1.15,2013-04-19 06:03:00,
2013-04-19 01:07:00,36.8,31.2,29.31,WSW,251,0.0,0.0,80,0.00,,,0.00,Wunderground v.1.15,2013-04-19 06:07:00,
2013-04-19 01:08:00,36.8,31.2,29.31,West,261,0.0,0.0,80,0.00,,,0.00,Wunderground v.1.15,2013-04-19 06:08:00,
2013-04-19 01:09:00,36.6,30.7,29.31,West,264,0.0,0.0,79,0.00,,,0.00,Wunderground v.1.15,2013-04-19 06:09:00,
2013-04-19 01:13:00,36.3,29.8,29.31,WSW,240,0.0,0.0,77,0.00,,,0.00,Wunderground v.1.15,2013-04-19 06:13:00,
2013-04-19 01:14:00,36.3,29.8,29.31,West,267,0.0,0.0,77,0.00,,,0.00,Wunderground v.1.15,2013-04-19 06:14:00,
2013-04-19 01:15:00,36.3,29.5,29.31,West,261,0.0,0.0,76,0.00,,,0.00,Wunderground v.1.15,2013-04-19 06:15:00,
2013-04-19 01:19:00,36.2,29.7,29.31,West,271,0.0,0.0,77,0.00,,,0.00,Wunderground v.1.15,2013-04-19 06:19:00,
2013-04-19 01:20:00,36.2,29.7,29.31,WSW,246,0.0,0.0,77,0.00,,,0.00,Wunderground v.1.15,2013-04-19 06:20:00,
2013-04-19 01:21:00,36.2,29.7,29.31,West,274,0.0,0.0,77,0.00,,,0.00,Wunderground v.1.15,2013-04-19 06:21:00,
2013-04-19 01:24:00,36.2,30.0,29.31,WSW,237,0.0,0.0,78,0.00,,,0.00,Wunderground v.1.15,2013-04-19 06:24:00,
2013-04-19 01:25:00,36.2,30.0,29.32,WSW,253,0.0,0.0,78,0.00,,,0.00,Wunderground v.1.15,2013-04-19 06:25:00,
2013-04-19 01:26:00,36.2,30.0,29.32,SW,226,0.0,0.0,78,0.00,,,0.00,Wunderground v.1.15,2013-04-19 06:26:00,
2013-04-19 01:27:00,36.2,30.0,29.32,WSW,243,0.0,0.0,78,0.00,,,0.00,Wunderground v.1.15,2013-04-19 06:27:00,
2013-04-19 01:29:00,36.2,29.7,29.32,WSW,240,0.0,0.0,77,0.00,,,0.00,Wunderground v.1.15,2013-04-19 06:29:00,
2013-04-19 01:30:00,36.2,29.7,29.32,West,272,0.0,0.0,77,0.00,,,0.00,Wunderground v.1.15,2013-04-19 06:30:00,
2013-04-19 01:31:00,36.2,29.7,29.32,WNW,293,0.0,0.0,77,0.00,,,0.00,Wunderground v.1.15,2013-04-19 06:31:00,
2013-04-19 01:32:00,36.2,29.7,29.32,West,268,0.0,0.0,77,0.00,,,0.00,Wunderground v.1.15,2013-04-19 06:32:00,
2013-04-19 01:34:00,36.2,29.7,29.32,West,260,0.0,0.0,77,0.00,,,0.00,Wunderground v.1.15,2013-04-19 06:34:00,
2013-04-19 01:36:00,36.2,30.0,29.32,WSW,257,0.0,0.0,78,0.00,,,0.00,Wunderground v.1.15,2013-04-19 06:36:00,
2013-04-19 01:37:00,36.2,30.0,29.32,WSW,239,0.0,0.0,78,0.00,,,0.00,Wunderground v.1.15,2013-04-19 06:37:00,
2013-04-19 01:38:00,36.2,30.0,29.32,West,262,0.0,0.0,78,0.00,,,0.00,Wunderground v.1.15,2013-04-19 06:38:00,
2013-04-19 01:40:00,36.2,30.3,29.31,WNW,282,0.0,0.0,79,0.00,,,0.00,Wunderground v.1.15,2013-04-19 06:40:00,
2013-04-19 01:42:00,36.0,30.1,29.31,West,259,0.0,0.0,79,0.00,,,0.00,Wunderground v.1.15,2013-04-19 06:42:00,
2013-04-19 01:43:00,36.0,30.1,29.31,WNW,287,0.0,0.0,79,0.00,,,0.00,Wunderground v.1.15,2013-04-19 06:43:00,
2013-04-19 01:44:00,36.0,30.1,29.31,West,278,0.0,0.0,79,0.00,,,0.00,Wunderground v.1.15,2013-04-19 06:44:00,
2013-04-19 01:45:00,36.0,29.8,29.31,West,261,0.0,0.0,78,0.00,,,0.00,Wunderground v.1.15,2013-04-19 06:45:00,
2013-04-19 01:47:00,36.2,30.3,29.31,NW,304,0.0,0.0,79,0.00,,,0.00,Wunderground v.1.15,2013-04-19 06:47:00,
2013-04-19 01:49:00,36.2,30.3,29.31,West,262,0.0,0.0,79,0.00,,,0.00,Wunderground v.1.15,2013-04-19 06:49:00,
2013-04-19 01:51:00,36.0,30.1,29.31,WSW,255,0.0,0.0,79,0.00,,,0.00,Wunderground v.1.15,2013-04-19 06:51:00,
2013-04-19 01:52:00,36.0,30.1,29.31,SW,233,0.0,0.0,79,0.00,,,0.00,Wunderground v.1.15,2013-04-19 06:52:00,
2013-04-19 01:55:00,36.0,30.1,29.31,West,277,0.0,0.0,79,0.00,,,0.00,Wunderground v.1.15,2013-04-19 06:55:00,
2013-04-19 01:57:00,36.0,29.8,29.31,WSW,253,0.0,0.0,78,0.00,,,0.00,Wunderground v.1.15,2013-04-19 06:57:00,
2013-04-19 01:58:00,36.0,29.5,29.31,WSW,258,0.0,0.0,77,0.00,,,0.00,Wunderground v.1.15,2013-04-19 06:58:00,
2013-04-19 02:00:00,36.0,29.5,29.31,WSW,257,0.0,0.0,77,0.00,,,0.00,Wunderground v.1.15,2013-04-19 07:00:00,
2013-04-19 02:01:00,36.0,29.5,29.31,West,273,0.0,0.0,77,0.00,,,0.00,Wunderground v.1.15,2013-04-19 07:01:00,
2013-04-19 02:02:00,36.0,29.5,29.31,West,269,0.0,0.0,77,0.00,,,0.00,Wunderground v.1.15,2013-04-19 07:02:00,
2013-04-19 02:03:00,36.0,29.5,29.31,West,276,0.0,0.0,77,0.00,,,0.00,Wunderground v.1.15,2013-04-19 07:03:00,
2013-04-19 02:04:00,36.0,29.5,29.31,WSW,256,0.0,0.0,77,0.00,,,0.00,Wunderground v.1.15,2013-04-19 07:04:00,
2013-04-19 02:06:00,36.0,29.5,29.31,WNW,286,0.0,1.0,77,0.00,,,0.00,Wunderground v.1.15,2013-04-19 07:06:00,
2013-04-19 02:07:00,36.0,29.5,29.31,WSW,253,0.0,1.0,77,0.00,,,0.00,Wunderground v.1.15,2013-04-19 07:07:00,
2013-04-19 02:08:00,36.0,29.5,29.31,West,270,0.0,0.0,77,0.00,,,0.00,Wunderground v.1.15,2013-04-19 07:08:00,
2013-04-19 02:10:00,36.0,29.2,29.31,West,273,0.0,0.0,76,0.00,,,0.00,Wunderground v.1.15,2013-04-19 07:10:00,
2013-04-19 02:11:00,36.0,29.2,29.31,West,274,0.0,0.0,76,0.00,,,0.00,Wunderground v.1.15,2013-04-19 07:11:00,
2013-04-19 02:13:00,36.0,29.2,29.31,West,266,0.0,0.0,76,0.00,,,0.00,Wunderground v.1.15,2013-04-19 07:13:00,
2013-04-19 02:14:00,36.0,29.2,29.31,WSW,258,0.0,0.0,76,0.00,,,0.00,Wunderground v.1.15,2013-04-19 07:14:00,
2013-04-19 02:15:00,36.0,29.2,29.31,WSW,245,0.0,0.0,76,0.00,,,0.00,Wunderground v.1.15,2013-04-19 07:15:00,
2013-04-19 02:16:00,35.9,29.4,29.31,West,264,0.0,0.0,77,0.00,,,0.00,Wunderground v.1.15,2013-04-19 07:16:00,
2013-04-19 02:19:00,35.9,29.7,29.31,WSW,242,0.0,0.0,78,0.00,,,0.00,Wunderground v.1.15,2013-04-19 07:19:00,
2013-04-19 02:20:00,35.8,29.6,29.31,WSW,255,0.0,0.0,78,0.00,,,0.00,Wunderground v.1.15,2013-04-19 07:20:00,
2013-04-19 02:21:00,35.8,29.6,29.31,WSW,255,0.0,0.0,78,0.00,,,0.00,Wunderground v.1.15,2013-04-19 07:21:00,
2013-04-19 02:22:00,35.8,29.6,29.31,SW,229,0.0,0.0,78,0.00,,,0.00,Wunderground v.1.15,2013-04-19 07:22:00,
2013-04-19 02:26:00,35.6,30.0,29.31,WSW,252,0.0,0.0,80,0.00,,,0.00,Wunderground v.1.15,2013-04-19 07:26:00,
2013-04-19 02:27:00,35.5,29.9,29.31,SW,223,0.0,3.0,80,0.00,,,0.00,Wunderground v.1.15,2013-04-19 07:27:00,
2013-04-19 02:31:00,35.5,29.9,29.31,West,271,0.0,1.0,80,0.00,,,0.00,Wunderground v.1.15,2013-04-19 07:31:00,
2013-04-19 02:33:00,35.5,29.9,29.31,WSW,252,0.0,2.0,80,0.00,,,0.00,Wunderground v.1.15,2013-04-19 07:33:00,
2013-04-19 02:34:00,35.5,29.9,29.31,West,262,0.0,2.0,80,0.00,,,0.00,Wunderground v.1.15,2013-04-19 07:34:00,
2013-04-19 02:36:00,35.5,29.6,29.31,SW,221,0.0,2.0,79,0.00,,,0.00,Wunderground v.1.15,2013-04-19 07:36:00,
2013-04-19 02:39:00,35.5,29.6,29.31,West,269,0.0,0.0,79,0.00,,,0.00,Wunderground v.1.15,2013-04-19 07:39:00,
2013-04-19 02:40:00,35.6,29.7,29.30,West,273,0.0,0.0,79,0.00,,,0.00,Wunderground v.1.15,2013-04-19 07:40:00,
2013-04-19 02:41:00,35.6,29.7,29.30,WSW,248,0.0,0.0,79,0.00,,,0.00,Wunderground v.1.15,2013-04-19 07:41:00,
2013-04-19 02:44:00,35.6,29.7,29.30,WSW,238,0.0,2.0,79,0.00,,,0.00,Wunderground v.1.15,2013-04-19 07:44:00,
2013-04-19 02:45:00,35.6,29.4,29.30,WSW,255,2.0,2.0,78,0.00,,,0.00,Wunderground v.1.15,2013-04-19 07:45:00,
2013-04-19 02:47:00,35.6,29.4,29.30,WSW,257,0.0,2.0,78,0.00,,,0.00,Wunderground v.1.15,2013-04-19 07:47:00,
2013-04-19 02:48:00,35.6,29.4,29.30,WSW,258,0.0,0.0,78,0.00,,,0.00,Wunderground v.1.15,2013-04-19 07:48:00,
2013-04-19 02:51:00,35.6,29.4,29.30,West,261,0.0,0.0,78,0.00,,,0.00,Wunderground v.1.15,2013-04-19 07:51:00,
2013-04-19 02:52:00,35.8,29.3,29.30,West,263,0.0,0.0,77,0.00,,,0.00,Wunderground v.1.15,2013-04-19 07:52:00,
2013-04-19 02:53:00,35.8,29.3,29.30,NW,304,0.0,0.0,77,0.00,,,0.00,Wunderground v.1.15,2013-04-19 07:53:00,
2013-04-19 02:56:00,35.8,29.3,29.30,WNW,290,0.0,0.0,77,0.00,,,0.00,Wunderground v.1.15,2013-04-19 07:56:00,
2013-04-19 02:58:00,35.8,29.0,29.30,West,264,0.0,0.0,76,0.00,,,0.00,Wunderground v.1.15,2013-04-19 07:58:00,
2013-04-19 02:59:00,35.8,29.0,29.30,WNW,297,0.0,0.0,76,0.00,,,0.00,Wunderground v.1.15,2013-04-19 07:59:00,
2013-04-19 03:01:00,35.8,29.0,29.30,West,269,0.0,0.0,76,0.00,,,0.00,Wunderground v.1.15,2013-04-19 08:01:00,
2013-04-19 03:02:00,35.8,29.0,29.30,West,272,0.0,0.0,76,0.00,,,0.00,Wunderground v.1.15,2013-04-19 08:02:00,
2013-04-19 03:04:00,35.8,29.3,29.30,NW,307,0.0,1.0,77,0.00,,,0.00,Wunderground v.1.15,2013-04-19 08:04:00,
2013-04-19 03:06:00,35.8,29.0,29.30,West,266,0.0,1.0,76,0.00,,,0.00,Wunderground v.1.15,2013-04-19 08:06:00,
2013-04-19 03:07:00,35.8,29.0,29.30,WSW,258,0.0,1.0,76,0.00,,,0.00,Wunderground v.1.15,2013-04-19 08:07:00,
2013-04-19 03:09:00,35.6,29.1,29.30,WNW,295,0.0,1.0,77,0.00,,,0.00,Wunderground v.1.15,2013-04-19 08:09:00,
2013-04-19 03:10:00,35.6,29.1,29.29,West,261,0.0,1.0,77,0.00,,,0.00,Wunderground v.1.15,2013-04-19 08:10:00,
2013-04-19 03:12:00,35.5,29.3,29.29,West,262,0.0,1.0,78,0.00,,,0.00,Wunderground v.1.15,2013-04-19 08:12:00,
2013-04-19 03:15:00,35.5,29.3,29.29,WSW,243,0.0,3.0,78,0.00,,,0.00,Wunderground v.1.15,2013-04-19 08:15:00,
2013-04-19 03:18:00,35.5,29.6,29.29,WSW,256,0.0,0.0,79,0.00,,,0.00,Wunderground v.1.15,2013-04-19 08:18:00,
2013-04-19 03:19:00,35.5,29.6,29.29,West,260,0.0,0.0,79,0.00,,,0.00,Wunderground v.1.15,2013-04-19 08:19:00,
2013-04-19 03:20:00,35.5,29.6,29.29,West,271,0.0,0.0,79,0.00,,,0.00,Wunderground v.1.15,2013-04-19 08:20:00,
2013-04-19 03:21:00,35.5,29.6,29.29,WSW,248,0.0,0.0,79,0.00,,,0.00,Wunderground v.1.15,2013-04-19 08:21:00,
2013-04-19 03:22:00,35.5,29.6,29.29,West,267,0.0,0.0,79,0.00,,,0.00,Wunderground v.1.15,2013-04-19 08:22:00,
2013-04-19 03:24:00,35.5,29.3,29.29,WSW,256,0.0,0.0,78,0.00,,,0.00,Wunderground v.1.15,2013-04-19 08:24:00,
2013-04-19 03:25:00,35.5,29.3,29.30,West,259,0.0,0.0,78,0.00,,,0.00,Wunderground v.1.15,2013-04-19 08:25:00,
2013-04-19 03:26:00,35.5,29.3,29.30,West,281,0.0,0.0,78,0.00,,,0.00,Wunderground v.1.15,2013-04-19 08:26:00,
2013-04-19 03:28:00,35.5,29.0,29.30,WSW,252,0.0,0.0,77,0.00,,,0.00,Wunderground v.1.15,2013-04-19 08:28:00,
2013-04-19 03:29:00,35.5,29.0,29.30,West,264,0.0,0.0,77,0.00,,,0.00,Wunderground v.1.15,2013-04-19 08:29:00,
2013-04-19 03:30:00,35.5,29.0,29.30,WSW,248,0.0,0.0,77,0.00,,,0.00,Wunderground v.1.15,2013-04-19 08:30:00,
2013-04-19 03:31:00,35.5,29.0,29.30,West,261,0.0,0.0,77,0.00,,,0.00,Wunderground v.1.15,2013-04-19 08:31:00,
2013-04-19 03:32:00,35.5,29.0,29.30,WSW,240,0.0,0.0,77,0.00,,,0.00,Wunderground v.1.15,2013-04-19 08:32:00,
2013-04-19 03:33:00,35.5,28.7,29.30,West,272,0.0,0.0,76,0.00,,,0.00,Wunderground v.1.15,2013-04-19 08:33:00,
2013-04-19 03:34:00,35.5,28.7,29.30,West,262,0.0,0.0,76,0.00,,,0.00,Wunderground v.1.15,2013-04-19 08:34:00,
2013-04-19 03:35:00,35.5,28.7,29.30,WNW,285,0.0,0.0,76,0.00,,,0.00,Wunderground v.1.15,2013-04-19 08:35:00,
2013-04-19 03:37:00,35.5,28.7,29.30,WSW,243,0.0,0.0,76,0.00,,,0.00,Wunderground v.1.15,2013-04-19 08:37:00,
2013-04-19 03:39:00,35.5,28.4,29.30,WSW,255,0.0,0.0,75,0.00,,,0.00,Wunderground v.1.15,2013-04-19 08:39:00,
2013-04-19 03:41:00,35.5,28.0,29.30,WNW,295,0.0,0.0,74,0.00,,,0.00,Wunderground v.1.15,2013-04-19 08:41:00,
2013-04-19 03:42:00,35.5,28.0,29.30,WSW,251,0.0,1.0,74,0.00,,,0.00,Wunderground v.1.15,2013-04-19 08:42:00,
2013-04-19 03:44:00,35.5,28.0,29.30,WSW,257,0.0,1.0,74,0.00,,,0.00,Wunderground v.1.15,2013-04-19 08:44:00,
2013-04-19 03:46:00,35.5,28.0,29.30,WSW,254,0.0,1.0,74,0.00,,,0.00,Wunderground v.1.15,2013-04-19 08:46:00,
2013-04-19 03:47:00,35.5,28.0,29.30,West,260,0.0,1.0,74,0.00,,,0.00,Wunderground v.1.15,2013-04-19 08:47:00,
2013-04-19 03:48:00,35.5,28.0,29.30,West,263,0.0,0.0,74,0.00,,,0.00,Wunderground v.1.15,2013-04-19 08:48:00,
2013-04-19 03:50:00,35.5,28.0,29.30,WSW,255,0.0,0.0,74,0.00,,,0.00,Wunderground v.1.15,2013-04-19 08:50:00,
2013-04-19 03:51:00,35.5,28.0,29.30,West,262,0.0,0.0,74,0.00,,,0.00,Wunderground v.1.15,2013-04-19 08:51:00,
2013-04-19 03:52:00,35.5,28.4,29.30,West,274,0.0,0.0,75,0.00,,,0.00,Wunderground v.1.15,2013-04-19 08:52:00,
2013-04-19 03:53:00,35.5,28.4,29.30,SW,219,0.0,1.0,75,0.00,,,0.00,Wunderground v.1.15,2013-04-19 08:53:00,
2013-04-19 03:54:00,35.5,28.4,29.30,WSW,241,0.0,1.0,75,0.00,,,0.00,Wunderground v.1.15,2013-04-19 08:54:00,
2013-04-19 03:56:00,35.3,28.2,29.30,WSW,256,0.0,1.0,75,0.00,,,0.00,Wunderground v.1.15,2013-04-19 08:56:00,
2013-04-19 03:58:00,35.3,28.5,29.30,WSW,258,0.0,0.0,76,0.00,,,0.00,Wunderground v.1.15,2013-04-19 08:58:00,
2013-04-19 03:59:00,35.3,28.5,29.30,WSW,257,0.0,0.0,76,0.00,,,0.00,Wunderground v.1.15,2013-04-19 08:59:00,
2013-04-19 04:02:00,35.2,28.7,29.30,WSW,250,0.0,0.0,77,0.00,,,0.00,Wunderground v.1.15,2013-04-19 09:02:00,
2013-04-19 04:03:00,35.2,28.7,29.30,West,264,0.0,0.0,77,0.00,,,0.00,Wunderground v.1.15,2013-04-19 09:03:00,
2013-04-19 04:06:00,35.2,28.4,29.30,WSW,245,0.0,2.0,76,0.00,,,0.00,Wunderground v.1.15,2013-04-19 09:06:00,
2013-04-19 04:08:00,35.2,28.4,29.30,WSW,256,0.0,0.0,76,0.00,,,0.00,Wunderground v.1.15,2013-04-19 09:08:00,
2013-04-19 04:09:00,35.2,28.4,29.30,WSW,245,0.0,0.0,76,0.00,,,0.00,Wunderground v.1.15,2013-04-19 09:09:00,
2013-04-19 04:11:00,35.2,28.4,29.29,WSW,255,0.0,1.0,76,0.00,,,0.00,Wunderground v.1.15,2013-04-19 09:11:00,
2013-04-19 04:12:00,35.2,28.4,29.29,West,269,0.0,1.0,76,0.00,,,0.00,Wunderground v.1.15,2013-04-19 09:12:00,
2013-04-19 04:13:00,35.2,28.4,29.29,West,267,0.0,1.0,76,0.00,,,0.00,Wunderground v.1.15,2013-04-19 09:13:00,
2013-04-19 04:14:00,35.2,28.4,29.29,West,259,0.0,1.0,76,0.00,,,0.00,Wunderground v.1.15,2013-04-19 09:14:00,
2013-04-19 04:16:00,35.2,28.4,29.29,West,259,0.0,1.0,76,0.00,,,0.00,Wunderground v.1.15,2013-04-19 09:16:00,
2013-04-19 04:17:00,35.2,28.4,29.29,WSW,248,0.0,1.0,76,0.00,,,0.00,Wunderground v.1.15,2013-04-19 09:17:00,
2013-04-19 04:18:00,35.2,28.4,29.29,WNW,284,0.0,0.0,76,0.00,,,0.00,Wunderground v.1.15,2013-04-19 09:18:00,
2013-04-19 04:20:00,35.2,28.4,29.29,West,278,0.0,0.0,76,0.00,,,0.00,Wunderground v.1.15,2013-04-19 09:20:00,
2013-04-19 04:21:00,35.2,28.4,29.29,WSW,257,0.0,0.0,76,0.00,,,0.00,Wunderground v.1.15,2013-04-19 09:21:00,
2013-04-19 04:22:00,35.2,28.4,29.29,WSW,252,0.0,1.0,76,0.00,,,0.00,Wunderground v.1.15,2013-04-19 09:22:00,
2013-04-19 04:25:00,35.2,28.4,29.30,West,270,0.0,1.0,76,0.00,,,0.00,Wunderground v.1.15,2013-04-19 09:25:00,
2013-04-19 04:27:00,35.2,28.7,29.30,WNW,285,0.0,1.0,77,0.00,,,0.00,Wunderground v.1.15,2013-04-19 09:27:00,
2013-04-19 04:28:00,35.2,28.7,29.30,WNW,283,0.0,0.0,77,0.00,,,0.00,Wunderground v.1.15,2013-04-19 09:28:00,
2013-04-19 04:29:00,35.2,28.7,29.30,West,272,0.0,0.0,77,0.00,,,0.00,Wunderground v.1.15,2013-04-19 09:29:00,
2013-04-19 04:30:00,35.2,28.7,29.30,WNW,284,0.0,0.0,77,0.00,,,0.00,Wunderground v.1.15,2013-04-19 09:30:00,
2013-04-19 04:32:00,35.2,28.7,29.30,West,269,0.0,1.0,77,0.00,,,0.00,Wunderground v.1.15,2013-04-19 09:32:00,
2013-04-19 04:34:00,35.2,28.7,29.30,WSW,252,0.0,1.0,77,0.00,,,0.00,Wunderground v.1.15,2013-04-19 09:34:00,
2013-04-19 04:36:00,35.0,28.5,29.30,WSW,258,0.0,1.0,77,0.00,,,0.00,Wunderground v.1.15,2013-04-19 09:36:00,
2013-04-19 04:37:00,35.0,28.8,29.30,WSW,254,0.0,1.0,78,0.00,,,0.00,Wunderground v.1.15,2013-04-19 09:37:00,
2013-04-19 04:39:00,35.0,28.8,29.30,West,269,0.0,1.0,78,0.00,,,0.00,Wunderground v.1.15,2013-04-19 09:39:00,
2013-04-19 04:40:00,35.0,28.8,29.30,West,271,0.0,1.0,78,0.00,,,0.00,Wunderground v.1.15,2013-04-19 09:40:00,
2013-04-19 04:41:00,35.0,28.5,29.30,West,270,0.0,1.0,77,0.00,,,0.00,Wunderground v.1.15,2013-04-19 09:41:00,
2013-04-19 04:43:00,35.0,28.5,29.30,West,269,0.0,1.0,77,0.00,,,0.00,Wunderground v.1.15,2013-04-19 09:43:00,
2013-04-19 04:44:00,35.0,28.8,29.30,West,259,0.0,1.0,78,0.00,,,0.00,Wunderground v.1.15,2013-04-19 09:44:00,
2013-04-19 04:45:00,35.0,28.8,29.30,West,264,0.0,1.0,78,0.00,,,0.00,Wunderground v.1.15,2013-04-19 09:45:00,
2013-04-19 04:48:00,35.0,28.8,29.30,West,270,0.0,4.0,78,0.00,,,0.00,Wunderground v.1.15,2013-04-19 09:48:00,
2013-04-19 04:49:00,35.0,28.8,29.30,WNW,294,0.0,4.0,78,0.00,,,0.00,Wunderground v.1.15,2013-04-19 09:49:00,
2013-04-19 04:50:00,35.0,28.8,29.30,West,262,0.0,4.0,78,0.00,,,0.00,Wunderground v.1.15,2013-04-19 09:50:00,
2013-04-19 04:51:00,35.0,28.8,29.30,WSW,257,0.0,4.0,78,0.00,,,0.00,Wunderground v.1.15,2013-04-19 09:51:00,
2013-04-19 04:53:00,35.0,28.5,29.30,WSW,253,0.0,4.0,77,0.00,,,0.00,Wunderground v.1.15,2013-04-19 09:53:00,
2013-04-19 04:54:00,35.0,28.2,29.29,West,276,0.0,4.0,76,0.00,,,0.00,Wunderground v.1.15,2013-04-19 09:54:00,
2013-04-19 04:55:00,35.0,28.2,29.29,WSW,255,0.0,4.0,76,0.00,,,0.00,Wunderground v.1.15,2013-04-19 09:55:00,
2013-04-19 04:56:00,35.0,28.2,29.29,NW,310,0.0,4.0,76,0.00,,,0.00,Wunderground v.1.15,2013-04-19 09:56:00,
2013-04-19 04:59:00,34.9,28.1,29.29,West,260,3.0,3.0,76,0.00,,,0.00,Wunderground v.1.15,2013-04-19 09:59:00,
2013-04-19 05:00:00,34.9,28.1,29.29,WNW,296,0.0,3.0,76,0.00,,,0.00,Wunderground v.1.15,2013-04-19 10:00:00,
2013-04-19 05:01:00,34.9,28.1,29.29,West,265,0.0,3.0,76,0.00,,,0.00,Wunderground v.1.15,2013-04-19 10:01:00,
2013-04-19 05:02:00,34.9,28.1,29.29,NW,309,0.0,3.0,76,0.00,,,0.00,Wunderground v.1.15,2013-04-19 10:02:00,
2013-04-19 05:03:00,34.9,28.1,29.29,West,264,0.0,3.0,76,0.00,,,0.00,Wunderground v.1.15,2013-04-19 10:03:00,
2013-04-19 05:04:00,34.7,27.9,29.29,WNW,292,0.0,3.0,76,0.00,,,0.00,Wunderground v.1.15,2013-04-19 10:04:00,
2013-04-19 05:06:00,34.7,27.9,29.29,West,259,0.0,3.0,76,0.00,,,0.00,Wunderground v.1.15,2013-04-19 10:06:00,
2013-04-19 05:08:00,34.7,27.9,29.29,West,266,1.0,1.0,76,0.00,,,0.00,Wunderground v.1.15,2013-04-19 10:08:00,
2013-04-19 05:09:00,34.7,27.9,29.29,WSW,257,0.0,2.0,76,0.00,,,0.00,Wunderground v.1.15,2013-04-19 10:09:00,
2013-04-19 05:10:00,34.7,27.9,29.29,West,271,0.0,2.0,76,0.00,,,0.00,Wunderground v.1.15,2013-04-19 10:10:00,
2013-04-19 05:11:00,34.7,27.9,29.29,WNW,294,0.0,2.0,76,0.00,,,0.00,Wunderground v.1.15,2013-04-19 10:11:00,
2013-04-19 05:12:00,34.9,28.1,29.29,West,267,0.0,2.0,76,0.00,,,0.00,Wunderground v.1.15,2013-04-19 10:12:00,
2013-04-19 05:13:00,34.9,28.1,29.29,WNW,287,0.0,2.0,76,0.00,,,0.00,Wunderground v.1.15,2013-04-19 10:13:00,
2013-04-19 05:15:00,34.9,28.1,29.29,WSW,252,0.0,2.0,76,0.00,,,0.00,Wunderground v.1.15,2013-04-19 10:15:00,
2013-04-19 05:16:00,34.9,28.1,29.29,West,269,0.0,2.0,76,0.00,,,0.00,Wunderground v.1.15,2013-04-19 10:16:00,
2013-04-19 05:18:00,34.9,28.1,29.29,West,280,0.0,0.0,76,0.00,,,0.00,Wunderground v.1.15,2013-04-19 10:18:00,
2013-04-19 05:21:00,34.9,28.1,29.29,West,262,0.0,3.0,76,0.00,,,0.00,Wunderground v.1.15,2013-04-19 10:21:00,
2013-04-19 05:22:00,34.9,28.1,29.29,West,259,0.0,3.0,76,0.00,,,0.00,Wunderground v.1.15,2013-04-19 10:22:00,
2013-04-19 05:23:00,34.9,28.1,29.29,WSW,244,0.0,3.0,76,0.00,,,0.00,Wunderground v.1.15,2013-04-19 10:23:00,
2013-04-19 05:24:00,34.9,28.1,29.29,WSW,255,0.0,3.0,76,0.00,,,0.00,Wunderground v.1.15,2013-04-19 10:24:00,
2013-04-19 05:27:00,34.9,27.8,29.28,West,269,0.0,6.0,75,0.00,,,0.00,Wunderground v.1.15,2013-04-19 10:27:00,
2013-04-19 05:28:00,34.9,27.8,29.28,West,259,1.0,1.0,75,0.00,,,0.00,Wunderground v.1.15,2013-04-19 10:28:00,
2013-04-19 05:29:00,34.9,27.8,29.28,West,260,1.0,1.0,75,0.00,,,0.00,Wunderground v.1.15,2013-04-19 10:29:00,
2013-04-19 05:32:00,34.7,27.9,29.28,WSW,238,0.0,4.0,76,0.00,,,0.00,Wunderground v.1.15,2013-04-19 10:32:00,
2013-04-19 05:33:00,34.7,27.9,29.28,West,273,0.0,4.0,76,0.00,,,0.00,Wunderground v.1.15,2013-04-19 10:33:00,
2013-04-19 05:34:00,34.7,27.6,29.28,West,274,0.0,4.0,75,0.00,,,0.00,Wunderground v.1.15,2013-04-19 10:34:00,
2013-04-19 05:36:00,34.9,27.5,29.28,West,269,3.0,4.0,74,0.00,,,0.00,Wunderground v.1.15,2013-04-19 10:36:00,
2013-04-19 05:38:00,34.9,27.5,29.28,WSW,257,0.0,1.0,74,0.00,,,0.00,Wunderground v.1.15,2013-04-19 10:38:00,
2013-04-19 05:39:00,34.9,27.5,29.28,West,264,0.0,1.0,74,0.00,,,0.00,Wunderground v.1.15,2013-04-19 10:39:00,
2013-04-19 05:41:00,34.9,27.8,29.29,WSW,248,0.0,1.0,75,0.00,,,0.00,Wunderground v.1.15,2013-04-19 10:41:00,
2013-04-19 05:43:00,34.9,27.8,29.29,West,260,1.0,1.0,75,0.00,,,0.00,Wunderground v.1.15,2013-04-19 10:43:00,
2013-04-19 05:44:00,34.9,27.8,29.29,West,260,0.0,1.0,75,0.00,,,0.00,Wunderground v.1.15,2013-04-19 10:44:00,
2013-04-19 05:45:00,34.9,27.8,29.29,West,270,0.0,1.0,75,0.00,,,0.00,Wunderground v.1.15,2013-04-19 10:45:00,
2013-04-19 05:46:00,34.7,27.6,29.29,West,275,1.0,1.0,75,0.00,,,0.00,Wunderground v.1.15,2013-04-19 10:46:00,
2013-04-19 05:48:00,34.7,27.9,29.29,WSW,254,1.0,1.0,76,0.00,,,0.00,Wunderground v.1.15,2013-04-19 10:48:00,
2013-04-19 05:50:00,34.7,27.6,29.29,West,278,0.0,2.0,75,0.00,,,0.00,Wunderground v.1.15,2013-04-19 10:50:00,
2013-04-19 05:51:00,34.7,27.9,29.29,West,268,0.0,2.0,76,0.00,,,0.00,Wunderground v.1.15,2013-04-19 10:51:00,
2013-04-19 05:53:00,34.7,27.9,29.29,West,266,1.0,4.0,76,0.00,,,0.00,Wunderground v.1.15,2013-04-19 10:53:00,
2013-04-19 05:55:00,34.7,27.9,29.29,West,279,0.0,4.0,76,0.00,,,0.00,Wunderground v.1.15,2013-04-19 10:55:00,
2013-04-19 05:56:00,34.7,27.9,29.29,WSW,255,0.0,4.0,76,0.00,,,0.00,Wunderground v.1.15,2013-04-19 10:56:00,
2013-04-19 05:57:00,34.7,27.9,29.29,West,263,1.0,4.0,76,0.00,,,0.00,Wunderground v.1.15,2013-04-19 10:57:00,
2013-04-19 05:58:00,34.7,27.9,29.29,SW,231,0.0,1.0,76,0.00,,,0.00,Wunderground v.1.15,2013-04-19 10:58:00,
2013-04-19 06:00:00,34.7,27.9,29.29,West,278,1.0,1.0,76,0.00,,,0.00,Wunderground v.1.15,2013-04-19 11:00:00,
2013-04-19 06:01:00,34.7,27.9,29.29,West,262,5.0,5.0,76,0.00,,,0.00,Wunderground v.1.15,2013-04-19 11:01:00,
2013-04-19 06:02:00,34.7,27.9,29.29,West,269,0.0,5.0,76,0.00,,,0.00,Wunderground v.1.15,2013-04-19 11:02:00,
2013-04-19 06:03:00,34.6,28.1,29.29,West,278,3.0,5.0,77,0.00,,,0.00,Wunderground v.1.15,2013-04-19 11:03:00,
2013-04-19 06:05:00,34.6,27.8,29.29,WNW,292,0.0,5.0,76,0.00,,,0.00,Wunderground v.1.15,2013-04-19 11:05:00,
2013-04-19 06:07:00,34.7,27.9,29.29,NW,315,0.0,5.0,76,0.00,,,0.00,Wunderground v.1.15,2013-04-19 11:07:00,
2013-04-19 06:10:00,34.7,27.9,29.30,West,265,0.0,2.0,76,0.00,,,0.00,Wunderground v.1.15,2013-04-19 11:10:00,
2013-04-19 06:11:00,34.7,27.9,29.30,West,278,0.0,2.0,76,0.00,,,0.00,Wunderground v.1.15,2013-04-19 11:11:00,
2013-04-19 06:12:00,34.7,27.9,29.30,WNW,290,2.0,2.0,76,0.00,,,0.00,Wunderground v.1.15,2013-04-19 11:12:00,
2013-04-19 06:13:00,34.7,27.6,29.30,WNW,284,16.0,16.0,75,0.00,,,0.00,Wunderground v.1.15,2013-04-19 11:13:00,
2013-04-19 06:15:00,34.7,27.9,29.30,WSW,241,17.0,25.0,76,0.00,,,0.00,Wunderground v.1.15,2013-04-19 11:15:00,
2013-04-19 06:16:00,34.7,27.6,29.30,West,262,20.0,25.0,75,0.00,,,0.00,Wunderground v.1.15,2013-04-19 11:16:00,
2013-04-19 06:18:00,34.7,27.6,29.30,WNW,282,18.0,23.0,75,0.00,,,0.00,Wunderground v.1.15,2013-04-19 11:18:00,
2013-04-19 06:19:00,34.7,27.6,29.30,West,263,19.0,23.0,75,0.00,,,0.00,Wunderground v.1.15,2013-04-19 11:19:00,
2013-04-19 06:21:00,34.7,27.6,29.30,West,263,19.0,23.0,75,0.00,,,0.00,Wunderground v.1.15,2013-04-19 11:21:00,
2013-04-19 06:22:00,34.7,27.9,29.30,West,276,15.0,23.0,76,0.00,,,0.00,Wunderground v.1.15,2013-04-19 11:22:00,
2013-04-19 06:24:00,34.7,27.9,29.30,WSW,250,18.0,23.0,76,0.00,,,0.00,Wunderground v.1.15,2013-04-19 11:24:00,
2013-04-19 06:26:00,34.7,27.9,29.30,WNW,288,14.0,23.0,76,0.00,,,0.00,Wunderground v.1.15,2013-04-19 11:26:00,
2013-04-19 06:28:00,34.7,27.9,29.30,West,281,13.0,15.0,76,0.00,,,0.00,Wunderground v.1.15,2013-04-19 11:28:00,
2013-04-19 06:29:00,34.7,27.9,29.30,West,261,17.0,23.0,76,0.00,,,0.00,Wunderground v.1.15,2013-04-19 11:29:00,
2013-04-19 06:30:00,34.7,28.2,29.30,West,281,13.0,23.0,77,0.00,,,0.00,Wunderground v.1.15,2013-04-19 11:30:00,
2013-04-19 06:31:00,34.6,28.1,29.30,West,278,24.0,24.0,77,0.00,,,0.00,Wunderground v.1.15,2013-04-19 11:31:00,
2013-04-19 06:32:00,34.6,28.1,29.30,West,271,17.0,24.0,77,0.00,,,0.00,Wunderground v.1.15,2013-04-19 11:32:00,
2013-04-19 06:34:00,34.6,28.1,29.30,West,261,25.0,25.0,77,0.00,,,0.00,Wunderground v.1.15,2013-04-19 11:34:00,
2013-04-19 06:35:00,34.6,28.1,29.30,WSW,251,13.0,25.0,77,0.00,,,0.00,Wunderground v.1.15,2013-04-19 11:35:00,
2013-04-19 06:37:00,34.6,28.1,29.30,WSW,240,16.0,35.0,77,0.00,,,0.00,Wunderground v.1.15,2013-04-19 11:37:00,
2013-04-19 06:39:00,34.6,27.8,29.30,West,264,16.0,29.0,76,0.00,,,0.00,Wunderground v.1.15,2013-04-19 11:39:00,
2013-04-19 06:40:00,34.6,27.8,29.30,West,260,16.0,29.0,76,0.00,,,0.00,Wunderground v.1.15,2013-04-19 11:40:00,
2013-04-19 06:41:00,34.6,27.8,29.30,West,274,13.0,29.0,76,0.00,,,0.00,Wunderground v.1.15,2013-04-19 11:41:00,
2013-04-19 06:42:00,34.6,27.8,29.30,West,268,15.0,29.0,76,0.00,,,0.00,Wunderground v.1.15,2013-04-19 11:42:00,
2013-04-19 06:43:00,34.6,28.1,29.30,WNW,301,12.0,29.0,77,0.00,,,0.00,Wunderground v.1.15,2013-04-19 11:43:00,
2013-04-19 06:45:00,34.6,27.8,29.30,WSW,252,19.0,29.0,76,0.00,,,0.00,Wunderground v.1.15,2013-04-19 11:45:00,
2013-04-19 06:47:00,34.6,27.8,29.30,West,263,24.0,29.0,76,0.00,,,0.00,Wunderground v.1.15,2013-04-19 11:47:00,
2013-04-19 06:48:00,34.6,27.8,29.30,West,274,28.0,28.0,76,0.00,,,0.00,Wunderground v.1.15,2013-04-19 11:48:00,
2013-04-19 06:51:00,34.6,27.5,29.30,WSW,251,24.0,28.0,75,0.00,,,0.00,Wunderground v.1.15,2013-04-19 11:51:00,
2013-04-19 06:52:00,34.7,27.6,29.30,WSW,258,17.0,28.0,75,0.00,,,0.00,Wunderground v.1.15,2013-04-19 11:52:00,
2013-04-19 06:53:00,34.7,27.3,29.30,West,266,15.0,28.0,74,0.00,,,0.00,Wunderground v.1.15,2013-04-19 11:53:00,
2013-04-19 06:55:00,34.7,27.3,29.30,West,274,18.0,28.0,74,0.00,,,0.00,Wunderground v.1.15,2013-04-19 11:55:00,
2013-04-19 06:57:00,34.7,26.9,29.30,West,276,18.0,28.0,73,0.00,,,0.00,Wunderground v.1.15,2013-04-19 11:57:00,
2013-04-19 06:58:00,34.7,26.9,29.30,West,259,15.0,28.0,73,0.00,,,0.00,Wunderground v.1.15,2013-04-19 11:58:00,
2013-04-19 06:59:00,34.7,26.9,29.30,WSW,241,18.0,28.0,73,0.00,,,0.00,Wunderground v.1.15,2013-04-19 11:59:00,
2013-04-19 07:01:00,34.7,26.6,29.30,West,266,13.0,31.0,72,0.00,,,0.00,Wunderground v.1.15,2013-04-19 12:01:00,
2013-04-19 07:03:00,34.7,26.9,29.30,West,274,30.0,31.0,73,0.00,,,0.00,Wunderground v.1.15,2013-04-19 12:03:00,
2013-04-19 07:04:00,34.7,26.9,29.30,West,260,26.0,31.0,73,0.00,,,0.00,Wunderground v.1.15,2013-04-19 12:04:00,
2013-04-19 07:05:00,34.7,26.9,29.30,WSW,250,19.0,31.0,73,0.00,,,0.00,Wunderground v.1.15,2013-04-19 12:05:00,
2013-04-19 07:06:00,34.7,26.9,29.30,SW,232,22.0,31.0,73,0.00,,,0.00,Wunderground v.1.15,2013-04-19 12:06:00,
2013-04-19 07:08:00,34.7,26.9,29.30,WSW,257,17.0,21.0,73,0.00,,,0.00,Wunderground v.1.15,2013-04-19 12:08:00,
2013-04-19 07:09:00,34.6,27.2,29.30,West,276,27.0,27.0,74,0.00,,,0.00,Wunderground v.1.15,2013-04-19 12:09:00,
2013-04-19 07:11:00,34.6,27.2,29.30,SW,234,19.0,28.0,74,0.00,,,0.00,Wunderground v.1.15,2013-04-19 12:11:00,
2013-04-19 07:12:00,34.6,27.2,29.30,WSW,248,19.0,28.0,74,0.00,,,0.00,Wunderground v.1.15,2013-04-19 12:12:00,
2013-04-19 07:13:00,34.6,27.2,29.30,WSW,250,13.0,28.0,74,0.00,,,0.00,Wunderground v.1.15,2013-04-19 12:13:00,
2013-04-19 07:14:00,34.6,27.2,29.30,West,269,18.0,28.0,74,0.00,,,0.00,Wunderground v.1.15,2013-04-19 12:14:00,
2013-04-19 07:16:00,34.6,27.2,29.30,West,275,24.0,30.0,74,0.00,,,0.00,Wunderground v.1.15,2013-04-19 12:16:00,
2013-04-19 07:19:00,34.6,27.2,29.30,West,261,24.0,31.0,74,0.00,,,0.00,Wunderground v.1.15,2013-04-19 12:19:00,
2013-04-19 07:20:00,34.6,26.8,29.30,West,264,21.0,31.0,73,0.00,,,0.00,Wunderground v.1.15,2013-04-19 12:20:00,
2013-04-19 07:22:00,34.6,26.8,29.30,WSW,250,13.0,31.0,73,0.00,,,0.00,Wunderground v.1.15,2013-04-19 12:22:00,
2013-04-19 07:25:00,34.6,26.8,29.29,West,280,25.0,31.0,73,0.00,,,0.00,Wunderground v.1.15,2013-04-19 12:25:00,
2013-04-19 07:27:00,34.6,26.8,29.29,WSW,258,25.0,31.0,73,0.00,,,0.00,Wunderground v.1.15,2013-04-19 12:27:00,
2013-04-19 07:28:00,34.6,26.8,29.29,West,262,19.0,26.0,73,0.00,,,0.00,Wunderground v.1.15,2013-04-19 12:28:00,
2013-04-19 07:30:00,34.7,27.3,29.29,WNW,284,21.0,30.0,74,0.00,,,0.00,Wunderground v.1.15,2013-04-19 12:30:00,
2013-04-19 07:31:00,34.9,27.5,29.29,West,262,19.0,30.0,74,0.00,,,0.00,Wunderground v.1.15,2013-04-19 12:31:00,
2013-04-19 07:33:00,34.9,27.5,29.29,West,261,12.0,30.0,74,0.00,,,0.00,Wunderground v.1.15,2013-04-19 12:33:00,
2013-04-19 07:34:00,34.9,27.5,29.29,West,281,21.0,30.0,74,0.00,,,0.00,Wunderground v.1.15,2013-04-19 12:34:00,
2013-04-19 07:35:00,34.9,27.1,29.29,WSW,254,24.0,30.0,73,0.00,,,0.00,Wunderground v.1.15,2013-04-19 12:35:00,
2013-04-19 07:36:00,34.7,26.9,29.29,West,266,21.0,30.0,73,0.00,,,0.00,Wunderground v.1.15,2013-04-19 12:36:00,
2013-04-19 07:39:00,34.7,27.3,29.29,SW,224,27.0,27.0,74,0.00,,,0.00,Wunderground v.1.15,2013-04-19 12:39:00,
2013-04-19 07:40:00,34.7,27.3,29.29,West,262,20.0,27.0,74,0.00,,,0.00,Wunderground v.1.15,2013-04-19 12:40:00,
2013-04-19 07:41:00,34.7,27.3,29.29,SW,221,17.0,27.0,74,0.00,,,0.00,Wunderground v.1.15,2013-04-19 12:41:00,
2013-04-19 07:43:00,34.7,27.3,29.29,West,262,21.0,27.0,74,0.00,,,0.00,Wunderground v.1.15,2013-04-19 12:43:00,
2013-04-19 07:46:00,34.7,27.3,29.29,West,281,19.0,28.0,74,0.00,,,0.00,Wunderground v.1.15,2013-04-19 12:46:00,
2013-04-19 07:47:00,34.7,27.3,29.29,West,264,20.0,28.0,74,0.00,,,0.00,Wunderground v.1.15,2013-04-19 12:47:00,
2013-04-19 07:48:00,34.7,27.3,29.29,West,269,31.0,31.0,74,0.00,,,0.00,Wunderground v.1.15,2013-04-19 12:48:00,
2013-04-19 07:52:00,34.7,27.3,29.29,West,268,24.0,34.0,74,0.00,,,0.00,Wunderground v.1.15,2013-04-19 12:52:00,
2013-04-19 07:53:00,34.7,27.3,29.29,West,262,22.0,34.0,74,0.00,,,0.00,Wunderground v.1.15,2013-04-19 12:53:00,
2013-04-19 07:54:00,34.7,26.9,29.29,West,266,25.0,34.0,73,0.00,,,0.00,Wunderground v.1.15,2013-04-19 12:54:00,
2013-04-19 07:58:00,34.9,27.1,29.29,West,271,19.0,22.0,73,0.00,,,0.00,Wunderground v.1.15,2013-04-19 12:58:00,
2013-04-19 07:59:00,34.9,27.1,29.29,WSW,238,12.0,23.0,73,0.00,,,0.00,Wunderground v.1.15,2013-04-19 12:59:00,
2013-04-19 08:00:00,34.9,27.1,29.29,West,268,28.0,28.0,73,0.00,,,0.00,Wunderground v.1.15,2013-04-19 13:00:00,
2013-04-19 08:04:00,34.7,26.3,29.29,SW,226,18.0,28.0,71,0.00,,,0.00,Wunderground v.1.15,2013-04-19 13:04:00,
2013-04-19 08:05:00,34.7,26.6,29.29,WSW,257,23.0,28.0,72,0.00,,,0.00,Wunderground v.1.15,2013-04-19 13:05:00,
2013-04-19 08:06:00,34.7,26.6,29.29,WNW,288,18.0,28.0,72,0.00,,,0.00,Wunderground v.1.15,2013-04-19 13:06:00,
2013-04-19 08:07:00,34.7,26.6,29.29,WNW,288,13.0,28.0,72,0.00,,,0.00,Wunderground v.1.15,2013-04-19 13:07:00,
2013-04-19 08:10:00,34.7,26.9,29.29,WNW,285,28.0,28.0,73,0.00,,,0.00,Wunderground v.1.15,2013-04-19 13:10:00,
2013-04-19 08:11:00,34.7,26.9,29.29,WSW,256,15.0,28.0,73,0.00,,,0.00,Wunderground v.1.15,2013-04-19 13:11:00,
2013-04-19 08:12:00,34.7,26.9,29.29,WSW,257,25.0,28.0,73,0.00,,,0.00,Wunderground v.1.15,2013-04-19 13:12:00,
2013-04-19 08:13:00,34.7,26.9,29.29,WSW,238,27.0,28.0,73,0.00,,,0.00,Wunderground v.1.15,2013-04-19 13:13:00,
2013-04-19 08:15:00,34.7,26.9,29.29,West,278,23.0,31.0,73,0.00,,,0.00,Wunderground v.1.15,2013-04-19 13:15:00,
2013-04-19 08:16:00,34.7,26.9,29.29,West,264,19.0,31.0,73,0.00,,,0.00,Wunderground v.1.15,2013-04-19 13:16:00,
2013-04-19 08:17:00,34.7,27.3,29.29,West,278,12.0,31.0,74,0.00,,,0.00,Wunderground v.1.15,2013-04-19 13:17:00,
2013-04-19 08:20:00,34.7,27.3,29.29,WNW,283,17.0,21.0,74,0.00,,,0.00,Wunderground v.1.15,2013-04-19 13:20:00,
2013-04-19 08:21:00,34.7,27.6,29.29,WSW,240,15.0,22.0,75,0.00,,,0.00,Wunderground v.1.15,2013-04-19 13:21:00,
2013-04-19 08:22:00,34.7,27.6,29.29,West,266,14.0,22.0,75,0.00,,,0.00,Wunderground v.1.15,2013-04-19 13:22:00,
2013-04-19 08:23:00,34.7,27.6,29.29,WSW,257,24.0,24.0,75,0.00,,,0.00,Wunderground v.1.15,2013-04-19 13:23:00,
2013-04-19 08:24:00,34.7,27.6,29.29,WSW,239,19.0,26.0,75,0.00,,,0.00,Wunderground v.1.15,2013-04-19 13:24:00,
2013-04-19 08:25:00,34.7,27.6,29.31,SW,233,14.0,26.0,75,0.00,,,0.00,Wunderground v.1.15,2013-04-19 13:25:00,
2013-04-19 08:27:00,34.7,27.6,29.31,West,269,23.0,26.0,75,0.00,,,0.00,Wunderground v.1.15,2013-04-19 13:27:00,
2013-04-19 08:39:00,34.3,28.5,29.31,West,278,30.0,30.0,79,0.00,,,0.00,Wunderground v.1.15,2013-04-19 13:39:00,
2013-04-19 08:40:00,34.3,28.5,29.31,WSW,245,20.0,30.0,79,0.00,,,0.00,Wunderground v.1.15,2013-04-19 13:40:00,
2013-04-19 08:41:00,34.4,28.6,29.31,West,262,21.0,30.0,79,0.00,,,0.00,Wunderground v.1.15,2013-04-19 13:41:00,
2013-04-19 08:44:00,34.6,28.8,29.31,WNW,287,12.0,30.0,79,0.00,,,0.00,Wunderground v.1.15,2013-04-19 13:44:00,
2013-04-19 08:47:00,34.7,28.5,29.31,WSW,252,19.0,30.0,78,0.00,,,0.00,Wunderground v.1.15,2013-04-19 13:47:00,
2013-04-19 08:48:00,34.7,28.2,29.31,West,274,26.0,34.0,77,0.00,,,0.00,Wunderground v.1.15,2013-04-19 13:48:00,
2013-04-19 08:50:00,34.7,28.2,29.31,West,271,23.0,25.0,77,0.00,,,0.00,Wunderground v.1.15,2013-04-19 13:50:00,
2013-04-19 08:52:00,34.7,28.2,29.31,West,267,13.0,25.0,77,0.00,,,0.00,Wunderground v.1.15,2013-04-19 13:52:00,
2013-04-19 08:53:00,34.7,28.5,29.31,WSW,255,20.0,25.0,78,0.00,,,0.00,Wunderground v.1.15,2013-04-19 13:53:00,
2013-04-19 08:55:00,34.6,28.4,29.30,WNW,289,21.0,25.0,78,0.00,,,0.00,Wunderground v.1.15,2013-04-19 13:55:00,
2013-04-19 08:58:00,34.6,28.4,29.30,NNW,331,21.0,24.0,78,0.00,,,0.00,Wunderground v.1.15,2013-04-19 13:58:00,
2013-04-19 08:59:00,34.6,28.4,29.30,West,270,19.0,24.0,78,0.00,,,0.00,Wunderground v.1.15,2013-04-19 13:59:00,
2013-04-19 09:00:00,34.6,28.4,29.30,West,268,19.0,24.0,78,0.00,,,0.00,Wunderground v.1.15,2013-04-19 14:00:00,
2013-04-19 09:03:00,34.6,28.4,29.30,West,274,22.0,26.0,78,0.00,,,0.00,Wunderground v.1.15,2013-04-19 14:03:00,
2013-04-19 09:05:00,34.7,28.2,29.30,West,269,20.0,26.0,77,0.00,,,0.00,Wunderground v.1.15,2013-04-19 14:05:00,
2013-04-19 09:08:00,35.0,28.5,29.30,West,274,19.0,19.0,77,0.00,,,0.00,Wunderground v.1.15,2013-04-19 14:08:00,
2013-04-19 09:09:00,35.2,28.1,29.30,WSW,255,20.0,29.0,75,0.00,,,0.00,Wunderground v.1.15,2013-04-19 14:09:00,
2013-04-19 09:10:00,35.3,27.2,29.31,WNW,296,19.0,29.0,72,0.00,,,0.00,Wunderground v.1.15,2013-04-19 14:10:00,
2013-04-19 09:13:00,35.5,27.7,29.31,West,271,23.0,29.0,73,0.00,,,0.00,Wunderground v.1.15,2013-04-19 14:13:00,
2013-04-19 09:14:00,35.5,27.4,29.31,SW,231,19.0,29.0,72,0.00,,,0.00,Wunderground v.1.15,2013-04-19 14:14:00,
2013-04-19 09:17:00,35.6,27.5,29.31,West,264,17.0,29.0,72,0.00,,,0.00,Wunderground v.1.15,2013-04-19 14:17:00,
2013-04-19 09:18:00,35.6,27.5,29.31,West,262,16.0,21.0,72,0.00,,,0.00,Wunderground v.1.15,2013-04-19 14:18:00,
2013-04-19 09:20:00,35.6,27.5,29.31,West,271,16.0,22.0,72,0.00,,,0.00,Wunderground v.1.15,2013-04-19 14:20:00,
2013-04-19 09:22:00,35.6,27.1,29.31,WSW,250,20.0,26.0,71,0.00,,,0.00,Wunderground v.1.15,2013-04-19 14:22:00,
2013-04-19 09:23:00,35.6,27.1,29.31,WNW,299,21.0,26.0,71,0.00,,,0.00,Wunderground v.1.15,2013-04-19 14:23:00,
2013-04-19 09:24:00,35.5,26.7,29.31,WNW,291,18.0,28.0,70,0.00,,,0.00,Wunderground v.1.15,2013-04-19 14:24:00,
2013-04-19 09:26:00,35.5,27.0,29.32,SW,236,17.0,28.0,71,0.00,,,0.00,Wunderground v.1.15,2013-04-19 14:26:00,
2013-04-19 09:27:00,35.5,27.0,29.32,WNW,284,14.0,28.0,71,0.00,,,0.00,Wunderground v.1.15,2013-04-19 14:27:00,
2013-04-19 09:28:00,35.5,27.4,29.32,West,263,24.0,24.0,72,0.00,,,0.00,Wunderground v.1.15,2013-04-19 14:28:00,
2013-04-19 09:31:00,35.3,26.5,29.32,West,278,15.0,32.0,70,0.00,,,0.00,Wunderground v.1.15,2013-04-19 14:31:00,
2013-04-19 09:32:00,35.3,26.8,29.32,West,278,19.0,32.0,71,0.00,,,0.00,Wunderground v.1.15,2013-04-19 14:32:00,
2013-04-19 09:33:00,35.3,26.8,29.32,West,259,28.0,32.0,71,0.00,,,0.00,Wunderground v.1.15,2013-04-19 14:33:00,
2013-04-19 09:34:00,35.3,27.2,29.32,WSW,257,20.0,32.0,72,0.00,,,0.00,Wunderground v.1.15,2013-04-19 14:34:00,
2013-04-19 09:37:00,35.0,27.2,29.32,West,262,24.0,32.0,73,0.00,,,0.00,Wunderground v.1.15,2013-04-19 14:37:00,
2013-04-19 09:38:00,35.0,26.9,29.32,WNW,296,22.0,22.0,72,0.00,,,0.00,Wunderground v.1.15,2013-04-19 14:38:00,
2013-04-19 09:40:00,34.9,27.5,29.33,West,278,23.0,26.0,74,0.00,,,0.00,Wunderground v.1.15,2013-04-19 14:40:00,
2013-04-19 09:42:00,34.9,27.5,29.33,WNW,298,20.0,26.0,74,0.00,,,0.00,Wunderground v.1.15,2013-04-19 14:42:00,
2013-04-19 09:43:00,34.7,27.6,29.33,WNW,289,13.0,26.0,75,0.00,,,0.00,Wunderground v.1.15,2013-04-19 14:43:00,
2013-04-19 09:44:00,34.7,27.3,29.33,West,272,21.0,26.0,74,0.00,,,0.00,Wunderground v.1.15,2013-04-19 14:44:00,
2013-04-19 09:46:00,34.7,27.6,29.33,WNW,293,28.0,28.0,75,0.00,,,0.00,Wunderground v.1.15,2013-04-19 14:46:00,
2013-04-19 09:48:00,34.9,27.1,29.33,West,263,19.0,26.0,73,0.00,,,0.00,Wunderground v.1.15,2013-04-19 14:48:00,
2013-04-19 09:49:00,34.9,26.8,29.33,NW,323,18.0,26.0,72,0.00,,,0.00,Wunderground v.1.15,2013-04-19 14:49:00,
2013-04-19 09:51:00,35.2,26.7,29.33,WSW,258,20.0,26.0,71,0.00,,,0.00,Wunderground v.1.15,2013-04-19 14:51:00,
2013-04-19 09:53:00,35.6,27.1,29.33,WSW,247,15.0,26.0,71,0.00,,,0.00,Wunderground v.1.15,2013-04-19 14:53:00,
2013-04-19 09:54:00,35.9,27.1,29.33,WSW,251,18.0,26.0,70,0.00,,,0.00,Wunderground v.1.15,2013-04-19 14:54:00,
2013-04-19 09:56:00,36.2,27.4,29.33,West,276,21.0,26.0,70,0.00,,,0.00,Wunderground v.1.15,2013-04-19 14:56:00,
2013-04-19 09:57:00,36.3,27.1,29.33,NNW,328,22.0,26.0,69,0.00,,,0.00,Wunderground v.1.15,2013-04-19 14:57:00,
2013-04-19 10:00:00,36.5,26.9,29.33,West,274,34.0,38.0,68,0.00,,,0.00,Wunderground v.1.15,2013-04-19 15:00:00,
2013-04-19 10:01:00,36.3,26.4,29.33,West,271,23.0,38.0,67,0.00,,,0.00,Wunderground v.1.15,2013-04-19 15:01:00,
2013-04-19 10:02:00,36.3,26.7,29.33,WNW,287,21.0,38.0,68,0.00,,,0.00,Wunderground v.1.15,2013-04-19 15:02:00,
2013-04-19 10:04:00,36.0,26.5,29.33,West,264,23.0,38.0,68,0.00,,,0.00,Wunderground v.1.15,2013-04-19 15:04:00,
2013-04-19 10:05:00,36.0,26.8,29.33,West,271,16.0,38.0,69,0.00,,,0.00,Wunderground v.1.15,2013-04-19 15:05:00,
2013-04-19 10:07:00,35.9,26.7,29.33,WNW,285,17.0,38.0,69,0.00,,,0.00,Wunderground v.1.15,2013-04-19 15:07:00,
2013-04-19 10:08:00,35.9,27.1,29.33,West,261,21.0,24.0,70,0.00,,,0.00,Wunderground v.1.15,2013-04-19 15:08:00,
2013-04-19 10:09:00,35.9,26.7,29.33,West,270,14.0,24.0,69,0.00,,,0.00,Wunderground v.1.15,2013-04-19 15:09:00,
2013-04-19 10:10:00,35.9,27.1,29.34,WSW,249,25.0,25.0,70,0.00,,,0.00,Wunderground v.1.15,2013-04-19 15:10:00,
2013-04-19 10:12:00,35.9,27.1,29.34,West,265,18.0,25.0,70,0.00,,,0.00,Wunderground v.1.15,2013-04-19 15:12:00,
2013-04-19 10:13:00,35.9,26.7,29.34,West,262,16.0,25.0,69,0.00,,,0.00,Wunderground v.1.15,2013-04-19 15:13:00,
2013-04-19 10:14:00,35.9,27.1,29.34,WNW,290,18.0,25.0,70,0.00,,,0.00,Wunderground v.1.15,2013-04-19 15:14:00,
2013-04-19 10:16:00,35.9,26.7,29.34,WSW,257,15.0,31.0,69,0.00,,,0.00,Wunderground v.1.15,2013-04-19 15:16:00,
2013-04-19 10:18:00,36.0,26.5,29.34,West,275,19.0,20.0,68,0.00,,,0.00,Wunderground v.1.15,2013-04-19 15:18:00,
2013-04-19 10:19:00,36.0,26.5,29.34,WNW,285,21.0,33.0,68,0.00,,,0.00,Wunderground v.1.15,2013-04-19 15:19:00,
2013-04-19 10:20:00,36.2,26.6,29.34,WNW,282,21.0,33.0,68,0.00,,,0.00,Wunderground v.1.15,2013-04-19 15:20:00,
2013-04-19 10:21:00,36.2,26.6,29.34,West,272,24.0,33.0,68,0.00,,,0.00,Wunderground v.1.15,2013-04-19 15:21:00,
2013-04-19 10:22:00,36.2,26.6,29.34,NW,309,22.0,33.0,68,0.00,,,0.00,Wunderground v.1.15,2013-04-19 15:22:00,
2013-04-19 10:23:00,36.2,26.6,29.34,WNW,285,21.0,33.0,68,0.00,,,0.00,Wunderground v.1.15,2013-04-19 15:23:00,
2013-04-19 10:24:00,36.0,26.5,29.34,West,278,14.0,33.0,68,0.00,,,0.00,Wunderground v.1.15,2013-04-19 15:24:00,
2013-04-19 10:25:00,36.0,26.1,29.34,WSW,255,21.0,33.0,67,0.00,,,0.00,Wunderground v.1.15,2013-04-19 15:25:00,
2013-04-19 10:26:00,36.2,26.6,29.34,West,262,18.0,33.0,68,0.00,,,0.00,Wunderground v.1.15,2013-04-19 15:26:00,
2013-04-19 10:29:00,36.2,25.9,29.34,West,269,19.0,24.0,66,0.00,,,0.00,Wunderground v.1.15,2013-04-19 15:29:00,
2013-04-19 10:30:00,36.2,26.6,29.34,WSW,252,18.0,28.0,68,0.00,,,0.00,Wunderground v.1.15,2013-04-19 15:30:00,
2013-04-19 10:31:00,36.2,26.6,29.34,NW,314,16.0,28.0,68,0.00,,,0.00,Wunderground v.1.15,2013-04-19 15:31:00,
2013-04-19 10:33:00,36.2,26.3,29.34,West,280,15.0,28.0,67,0.00,,,0.00,Wunderground v.1.15,2013-04-19 15:33:00,
2013-04-19 10:34:00,36.2,26.3,29.34,West,264,14.0,28.0,67,0.00,,,0.00,Wunderground v.1.15,2013-04-19 15:34:00,
2013-04-19 10:36:00,36.2,26.3,29.34,West,273,17.0,28.0,67,0.00,,,0.00,Wunderground v.1.15,2013-04-19 15:36:00,
2013-04-19 10:38:00,36.2,26.3,29.34,West,279,27.0,27.0,67,0.00,,,0.00,Wunderground v.1.15,2013-04-19 15:38:00,
2013-04-19 10:39:00,36.0,26.1,29.34,West,269,24.0,30.0,67,0.00,,,0.00,Wunderground v.1.15,2013-04-19 15:39:00,
2013-04-19 10:41:00,35.9,26.4,29.34,West,278,25.0,31.0,68,0.00,,,0.00,Wunderground v.1.15,2013-04-19 15:41:00,
2013-04-19 10:42:00,36.0,26.5,29.34,West,262,20.0,31.0,68,0.00,,,0.00,Wunderground v.1.15,2013-04-19 15:42:00,
2013-04-19 10:43:00,36.0,26.5,29.34,NW,307,22.0,31.0,68,0.00,,,0.00,Wunderground v.1.15,2013-04-19 15:43:00,
2013-04-19 10:46:00,36.0,25.7,29.34,WNW,288,18.0,33.0,66,0.00,,,0.00,Wunderground v.1.15,2013-04-19 15:46:00,
2013-04-19 10:47:00,36.0,25.7,29.34,NW,310,20.0,33.0,66,0.00,,,0.00,Wunderground v.1.15,2013-04-19 15:47:00,
2013-04-19 10:48:00,36.0,26.1,29.34,WNW,290,23.0,25.0,67,0.00,,,0.00,Wunderground v.1.15,2013-04-19 15:48:00,
2013-04-19 10:52:00,35.9,26.0,29.34,WNW,292,29.0,29.0,67,0.00,,,0.00,Wunderground v.1.15,2013-04-19 15:52:00,
2013-04-19 10:53:00,35.9,26.7,29.34,WNW,289,19.0,29.0,69,0.00,,,0.00,Wunderground v.1.15,2013-04-19 15:53:00,
2013-04-19 10:55:00,35.9,26.7,29.35,WNW,294,20.0,29.0,69,0.00,,,0.00,Wunderground v.1.15,2013-04-19 15:55:00,
2013-04-19 10:57:00,35.8,26.6,29.35,WNW,287,20.0,29.0,69,0.00,,,0.00,Wunderground v.1.15,2013-04-19 15:57:00,
2013-04-19 10:59:00,35.9,27.1,29.35,WNW,299,15.0,25.0,70,0.00,,,0.00,Wunderground v.1.15,2013-04-19 15:59:00,
2013-04-19 11:00:00,35.9,27.1,29.35,West,267,23.0,25.0,70,0.00,,,0.00,Wunderground v.1.15,2013-04-19 16:00:00,
2013-04-19 11:02:00,35.8,27.0,29.35,WNW,292,22.0,29.0,70,0.00,,,0.00,Wunderground v.1.15,2013-04-19 16:02:00,
2013-04-19 11:03:00,35.9,27.7,29.35,West,281,16.0,29.0,72,0.00,,,0.00,Wunderground v.1.15,2013-04-19 16:03:00,
2013-04-19 11:05:00,36.0,27.5,29.35,West,280,20.0,29.0,71,0.00,,,0.00,Wunderground v.1.15,2013-04-19 16:05:00,
2013-04-19 11:07:00,36.2,28.4,29.35,West,276,22.0,29.0,73,0.00,,,0.00,Wunderground v.1.15,2013-04-19 16:07:00,
2013-04-19 11:09:00,36.6,28.8,29.35,WNW,295,15.0,23.0,73,0.00,,,0.00,Wunderground v.1.15,2013-04-19 16:09:00,
2013-04-19 11:11:00,37.0,28.8,29.35,WSW,257,18.0,28.0,72,0.00,,,0.00,Wunderground v.1.15,2013-04-19 16:11:00,
2013-04-19 11:13:00,37.2,28.0,29.35,West,271,27.0,28.0,69,0.00,,,0.00,Wunderground v.1.15,2013-04-19 16:13:00,
2013-04-19 11:14:00,37.5,27.5,29.35,West,266,27.0,29.0,67,0.00,,,0.00,Wunderground v.1.15,2013-04-19 16:14:00,
2013-04-19 11:16:00,37.5,27.5,29.35,West,271,24.0,31.0,67,0.00,,,0.00,Wunderground v.1.15,2013-04-19 16:16:00,
2013-04-19 11:17:00,37.5,27.5,29.35,WNW,283,18.0,31.0,67,0.00,,,0.00,Wunderground v.1.15,2013-04-19 16:17:00,
2013-04-19 11:18:00,37.5,27.5,29.35,WNW,290,19.0,32.0,67,0.00,,,0.00,Wunderground v.1.15,2013-04-19 16:18:00,
2013-04-19 11:19:00,37.3,27.3,29.35,West,268,21.0,32.0,67,0.00,,,0.00,Wunderground v.1.15,2013-04-19 16:19:00,
2013-04-19 11:21:00,37.2,27.2,29.35,WSW,240,17.0,32.0,67,0.00,,,0.00,Wunderground v.1.15,2013-04-19 16:21:00,
2013-04-19 11:22:00,37.2,27.2,29.35,WSW,251,16.0,32.0,67,0.00,,,0.00,Wunderground v.1.15,2013-04-19 16:22:00,
2013-04-19 11:23:00,37.2,28.0,29.35,WSW,257,13.0,32.0,69,0.00,,,0.00,Wunderground v.1.15,2013-04-19 16:23:00,
2013-04-19 11:24:00,37.0,28.1,29.35,WNW,296,16.0,32.0,70,0.00,,,0.00,Wunderground v.1.15,2013-04-19 16:24:00,
2013-04-19 11:25:00,37.0,28.5,29.36,WSW,255,27.0,32.0,71,0.00,,,0.00,Wunderground v.1.15,2013-04-19 16:25:00,
2013-04-19 11:27:00,37.0,28.8,29.36,WNW,287,31.0,32.0,72,0.00,,,0.00,Wunderground v.1.15,2013-04-19 16:27:00,
2013-04-19 11:29:00,37.2,29.0,29.36,West,267,24.0,25.0,72,0.00,,,0.00,Wunderground v.1.15,2013-04-19 16:29:00,
2013-04-19 11:30:00,37.2,29.0,29.36,West,281,20.0,25.0,72,0.00,,,0.00,Wunderground v.1.15,2013-04-19 16:30:00,
2013-04-19 11:31:00,37.2,29.0,29.36,WNW,303,21.0,27.0,72,0.00,,,0.00,Wunderground v.1.15,2013-04-19 16:31:00,
2013-04-19 11:32:00,37.2,28.3,29.36,West,261,30.0,30.0,70,0.00,,,0.00,Wunderground v.1.15,2013-04-19 16:32:00,
2013-04-19 11:34:00,37.0,27.8,29.36,West,281,19.0,30.0,69,0.00,,,0.00,Wunderground v.1.15,2013-04-19 16:34:00,
2013-04-19 11:35:00,37.0,28.5,29.36,NW,308,22.0,30.0,71,0.00,,,0.00,Wunderground v.1.15,2013-04-19 16:35:00,
2013-04-19 11:36:00,37.0,28.1,29.36,West,280,16.0,30.0,70,0.00,,,0.00,Wunderground v.1.15,2013-04-19 16:36:00,
2013-04-19 11:37:00,36.9,28.0,29.36,WNW,290,26.0,33.0,70,0.00,,,0.00,Wunderground v.1.15,2013-04-19 16:37:00,
2013-04-19 11:39:00,36.0,27.8,29.36,West,269,25.0,28.0,72,0.00,,,0.00,Wunderground v.1.15,2013-04-19 16:39:00,
2013-04-19 11:40:00,35.2,28.1,29.37,NW,304,20.0,33.0,75,0.00,,,0.00,Wunderground v.1.15,2013-04-19 16:40:00,
2013-04-19 11:41:00,34.7,28.5,29.37,WNW,299,21.0,33.0,78,0.00,,,0.00,Wunderground v.1.15,2013-04-19 16:41:00,
2013-04-19 11:42:00,34.6,28.8,29.37,WNW,302,27.0,33.0,79,0.00,,,0.00,Wunderground v.1.15,2013-04-19 16:42:00,
2013-04-19 11:44:00,34.1,29.2,29.37,NW,309,23.0,33.0,82,0.00,,,0.00,Wunderground v.1.15,2013-04-19 16:44:00,
2013-04-19 11:46:00,33.8,29.5,29.37,WNW,302,17.0,33.0,84,0.00,,,0.00,Wunderground v.1.15,2013-04-19 16:46:00,
2013-04-19 11:47:00,34.0,30.0,29.37,West,278,14.0,33.0,85,0.00,,,0.00,Wunderground v.1.15,2013-04-19 16:47:00,
2013-04-19 11:48:00,34.0,30.0,29.37,NW,311,16.0,23.0,85,0.00,,,0.00,Wunderground v.1.15,2013-04-19 16:48:00,
2013-04-19 11:50:00,34.3,30.3,29.37,NW,311,20.0,23.0,85,0.00,,,0.00,Wunderground v.1.15,2013-04-19 16:50:00,
2013-04-19 11:52:00,34.3,30.3,29.37,NW,306,14.0,23.0,85,0.00,,,0.00,Wunderground v.1.15,2013-04-19 16:52:00,
2013-04-19 11:54:00,34.4,30.4,29.37,NNW,337,13.0,23.0,85,0.00,,,0.00,Wunderground v.1.15,2013-04-19 16:54:00,
2013-04-19 11:57:00,34.3,30.3,29.38,NNW,330,11.0,23.0,85,0.00,,,0.00,Wunderground v.1.15,2013-04-19 16:57:00,
2013-04-19 11:58:00,34.3,30.3,29.38,NW,309,16.0,16.0,85,0.00,,,0.00,Wunderground v.1.15,2013-04-19 16:58:00,
2013-04-19 11:59:00,34.1,30.4,29.38,NW,320,16.0,17.0,86,0.00,,,0.00,Wunderground v.1.15,2013-04-19 16:59:00,
2013-04-19 12:00:00,34.1,30.4,29.38,WNW,295,10.0,17.0,86,0.00,,,0.00,Wunderground v.1.15,2013-04-19 17:00:00,
2013-04-19 12:03:00,34.4,30.4,29.38,NW,313,25.0,28.0,85,0.00,,,0.00,Wunderground v.1.15,2013-04-19 17:03:00,
2013-04-19 12:04:00,34.4,30.4,29.38,NW,316,17.0,28.0,85,0.00,,,0.00,Wunderground v.1.15,2013-04-19 17:04:00,
2013-04-19 12:06:00,35.0,30.1,29.38,WNW,297,24.0,28.0,82,0.00,,,0.00,Wunderground v.1.15,2013-04-19 17:06:00,
2013-04-19 12:08:00,35.3,29.1,29.38,West,278,16.0,27.0,78,0.00,,,0.00,Wunderground v.1.15,2013-04-19 17:08:00,
2013-04-19 12:09:00,35.3,28.8,29.38,WNW,298,18.0,27.0,77,0.00,,,0.00,Wunderground v.1.15,2013-04-19 17:09:00,
2013-04-19 12:10:00,35.5,29.0,29.38,WNW,294,16.0,27.0,77,0.00,,,0.00,Wunderground v.1.15,2013-04-19 17:10:00,
2013-04-19 12:11:00,35.6,29.4,29.38,WNW,288,12.0,27.0,78,0.00,,,0.00,Wunderground v.1.15,2013-04-19 17:11:00,
2013-04-19 12:12:00,35.8,29.6,29.38,WNW,288,16.0,27.0,78,0.00,,,0.00,Wunderground v.1.15,2013-04-19 17:12:00,
2013-04-19 12:14:00,35.6,29.4,29.38,NW,304,31.0,32.0,78,0.00,,,0.00,Wunderground v.1.15,2013-04-19 17:14:00,
2013-04-19 12:15:00,34.9,28.7,29.38,West,265,22.0,36.0,78,0.00,,,0.00,Wunderground v.1.15,2013-04-19 17:15:00,
2013-04-19 12:17:00,33.7,30.0,29.38,NW,317,14.0,36.0,86,0.00,,,0.00,Wunderground v.1.15,2013-04-19 17:17:00,
2013-04-19 12:18:00,33.1,29.7,29.38,WNW,283,19.0,23.0,87,0.00,,,0.00,Wunderground v.1.15,2013-04-19 17:18:00,
2013-04-19 12:19:00,32.8,29.9,29.38,WNW,290,23.0,23.0,89,0.00,,,0.00,Wunderground v.1.15,2013-04-19 17:19:00,
2013-04-19 12:20:00,32.7,30.1,29.38,WNW,290,22.0,23.0,90,0.00,,,0.00,Wunderground v.1.15,2013-04-19 17:20:00,
2013-04-19 12:24:00,32.7,30.4,29.38,WNW,293,17.0,23.0,91,0.00,,,0.00,Wunderground v.1.15,2013-04-19 17:24:00,
2013-04-19 12:25:00,32.8,30.5,29.40,WNW,284,14.0,23.0,91,0.00,,,0.00,Wunderground v.1.15,2013-04-19 17:25:00,
2013-04-19 12:26:00,33.1,30.8,29.40,West,272,23.0,23.0,91,0.00,,,0.00,Wunderground v.1.15,2013-04-19 17:26:00,
2013-04-19 12:29:00,33.7,30.8,29.40,WNW,300,14.0,18.0,89,0.00,,,0.00,Wunderground v.1.15,2013-04-19 17:29:00,
2013-04-19 12:33:00,34.9,32.0,29.40,West,277,13.0,18.0,89,0.00,,,0.00,Wunderground v.1.15,2013-04-19 17:33:00,
2013-04-19 12:34:00,34.9,31.1,29.40,West,266,23.0,23.0,86,0.00,,,0.00,Wunderground v.1.15,2013-04-19 17:34:00,
2013-04-19 12:35:00,35.0,31.2,29.40,WSW,258,24.0,24.0,86,0.00,,,0.00,Wunderground v.1.15,2013-04-19 17:35:00,
2013-04-19 12:38:00,35.6,30.9,29.40,West,274,25.0,25.0,83,0.00,,,0.00,Wunderground v.1.15,2013-04-19 17:38:00,
2013-04-19 12:39:00,35.9,30.6,29.40,West,271,22.0,29.0,81,0.00,,,0.00,Wunderground v.1.15,2013-04-19 17:39:00,
2013-04-19 12:40:00,36.2,30.9,29.39,NNW,330,19.0,29.0,81,0.00,,,0.00,Wunderground v.1.15,2013-04-19 17:40:00,
2013-04-19 12:41:00,36.3,31.0,29.39,West,264,13.0,29.0,81,0.00,,,0.00,Wunderground v.1.15,2013-04-19 17:41:00,
2013-04-19 12:49:00,38.2,31.0,29.39,NNW,331,18.0,20.0,75,0.00,,,0.00,Wunderground v.1.15,2013-04-19 17:49:00,
2013-04-19 12:50:00,38.5,30.6,29.39,West,264,23.0,23.0,73,0.00,,,0.00,Wunderground v.1.15,2013-04-19 17:50:00,
2013-04-19 12:53:00,38.3,29.4,29.39,WNW,290,13.0,26.0,70,0.00,,,0.00,Wunderground v.1.15,2013-04-19 17:53:00,
2013-04-19 12:54:00,38.3,29.4,29.39,West,271,26.0,26.0,70,0.00,,,0.00,Wunderground v.1.15,2013-04-19 17:54:00,
2013-04-19 12:55:00,38.2,29.6,29.39,WSW,246,28.0,31.0,71,0.00,,,0.00,Wunderground v.1.15,2013-04-19 17:55:00,
2013-04-19 12:57:00,37.8,28.9,29.39,West,265,25.0,31.0,70,0.00,,,0.00,Wunderground v.1.15,2013-04-19 17:57:00,
2013-04-19 12:59:00,37.0,29.1,29.39,WSW,246,16.0,31.0,73,0.00,,,0.00,Wunderground v.1.15,2013-04-19 17:59:00,
2013-04-19 13:00:00,36.8,29.0,29.39,WSW,256,19.0,31.0,73,0.00,,,0.00,Wunderground v.1.15,2013-04-19 18:00:00,
2013-04-19 13:02:00,35.9,29.4,29.39,West,269,33.0,33.0,77,0.00,,,0.00,Wunderground v.1.15,2013-04-19 18:02:00,
2013-04-19 13:03:00,35.6,29.1,29.39,WNW,302,24.0,33.0,77,0.00,,,0.00,Wunderground v.1.15,2013-04-19 18:03:00,
2013-04-19 13:04:00,35.3,28.8,29.39,NW,316,21.0,33.0,77,0.00,,,0.00,Wunderground v.1.15,2013-04-19 18:04:00,
2013-04-19 13:05:00,35.2,28.7,29.39,West,280,27.0,33.0,77,0.00,,,0.00,Wunderground v.1.15,2013-04-19 18:05:00,
2013-04-19 13:08:00,35.0,28.5,29.39,West,259,14.0,22.0,77,0.00,,,0.00,Wunderground v.1.15,2013-04-19 18:08:00,
2013-04-19 13:09:00,35.0,28.2,29.39,WNW,288,16.0,22.0,76,0.00,,,0.00,Wunderground v.1.15,2013-04-19 18:09:00,
2013-04-19 13:10:00,35.0,28.2,29.40,WNW,298,16.0,22.0,76,0.00,,,0.00,Wunderground v.1.15,2013-04-19 18:10:00,
2013-04-19 13:11:00,35.0,28.5,29.40,WNW,302,14.0,22.0,77,0.00,,,0.00,Wunderground v.1.15,2013-04-19 18:11:00,
2013-04-19 13:14:00,35.2,28.7,29.40,WNW,293,16.0,22.0,77,0.00,,,0.00,Wunderground v.1.15,2013-04-19 18:14:00,
2013-04-19 13:15:00,35.2,28.7,29.40,West,270,19.0,24.0,77,0.00,,,0.00,Wunderground v.1.15,2013-04-19 18:15:00,
2013-04-19 13:19:00,36.2,28.7,29.40,NW,307,21.0,21.0,74,0.00,,,0.00,Wunderground v.1.15,2013-04-19 18:19:00,
2013-04-19 13:20:00,36.5,28.0,29.40,West,271,15.0,32.0,71,0.00,,,0.00,Wunderground v.1.15,2013-04-19 18:20:00,
2013-04-19 13:24:00,36.9,27.3,29.40,West,272,24.0,32.0,68,0.00,,,0.00,Wunderground v.1.15,2013-04-19 18:24:00,
2013-04-19 13:25:00,36.9,27.3,29.41,WNW,294,22.0,32.0,68,0.00,,,0.01,Wunderground v.1.15,2013-04-19 18:25:00,
2013-04-19 13:26:00,37.0,28.1,29.41,WNW,295,11.0,32.0,70,0.00,,,0.01,Wunderground v.1.15,2013-04-19 18:26:00,
2013-04-19 13:29:00,37.8,28.2,29.41,NW,307,17.0,25.0,68,0.00,,,0.01,Wunderground v.1.15,2013-04-19 18:29:00,
2013-04-19 13:30:00,37.8,28.2,29.41,West,280,23.0,29.0,68,0.00,,,0.01,Wunderground v.1.15,2013-04-19 18:30:00,
2013-04-19 13:33:00,37.8,27.5,29.41,NNW,328,16.0,29.0,66,0.00,,,0.01,Wunderground v.1.15,2013-04-19 18:33:00,
2013-04-19 13:34:00,37.6,27.6,29.41,NW,323,28.0,32.0,67,0.00,,,0.01,Wunderground v.1.15,2013-04-19 18:34:00,
2013-04-19 13:36:00,37.3,27.3,29.41,NW,314,27.0,32.0,67,0.00,,,0.01,Wunderground v.1.15,2013-04-19 18:36:00,
2013-04-19 13:39:00,36.9,28.0,29.41,West,281,26.0,30.0,70,0.00,,,0.01,Wunderground v.1.15,2013-04-19 18:39:00,
2013-04-19 13:42:00,36.6,28.1,29.41,WNW,287,20.0,30.0,71,0.00,,,0.01,Wunderground v.1.15,2013-04-19 18:42:00,
2013-04-19 13:44:00,36.6,29.1,29.41,NW,307,20.0,30.0,74,0.00,,,0.01,Wunderground v.1.15,2013-04-19 18:44:00,
2013-04-19 13:46:00,36.5,29.0,29.41,NW,309,24.0,31.0,74,0.00,,,0.01,Wunderground v.1.15,2013-04-19 18:46:00,
2013-04-19 13:47:00,36.3,29.1,29.41,WNW,301,25.0,31.0,75,0.00,,,0.01,Wunderground v.1.15,2013-04-19 18:47:00,
2013-04-19 13:48:00,36.0,28.8,29.41,WNW,295,20.0,23.0,75,0.00,,,0.01,Wunderground v.1.15,2013-04-19 18:48:00,
2013-04-19 13:52:00,35.6,28.5,29.41,WNW,297,30.0,30.0,75,0.00,,,0.01,Wunderground v.1.15,2013-04-19 18:52:00,
2013-04-19 13:53:00,35.6,27.5,29.41,WNW,302,16.0,30.0,72,0.00,,,0.01,Wunderground v.1.15,2013-04-19 18:53:00,
2013-04-19 13:54:00,35.8,28.0,29.41,NW,313,16.0,30.0,73,0.00,,,0.01,Wunderground v.1.15,2013-04-19 18:54:00,
2013-04-19 13:58:00,36.0,27.5,29.42,WNW,287,25.0,25.0,71,0.00,,,0.01,Wunderground v.1.15,2013-04-19 18:58:00,
2013-04-19 14:01:00,36.5,27.3,29.42,WNW,284,21.0,26.0,69,0.00,,,0.01,Wunderground v.1.15,2013-04-19 19:01:00,
2013-04-19 14:02:00,36.6,27.4,29.42,West,268,16.0,26.0,69,0.00,,,0.01,Wunderground v.1.15,2013-04-19 19:02:00,
2013-04-19 14:03:00,37.2,28.3,29.42,WNW,289,18.0,26.0,70,0.00,,,0.01,Wunderground v.1.15,2013-04-19 19:03:00,
2013-04-19 14:04:00,37.2,28.3,29.42,WNW,300,15.0,26.0,70,0.00,,,0.01,Wunderground v.1.15,2013-04-19 19:04:00,
2013-04-19 14:06:00,38.3,27.9,29.42,West,274,11.0,26.0,66,0.00,,,0.01,Wunderground v.1.15,2013-04-19 19:06:00,
2013-04-19 14:08:00,38.6,28.2,29.42,NW,304,14.0,19.0,66,0.00,,,0.01,Wunderground v.1.15,2013-04-19 19:08:00,
2013-04-19 14:09:00,38.6,26.7,29.42,West,274,22.0,22.0,62,0.00,,,0.01,Wunderground v.1.15,2013-04-19 19:09:00,
2013-04-19 14:10:00,38.5,26.6,29.42,WNW,288,20.0,22.0,62,0.00,,,0.01,Wunderground v.1.15,2013-04-19 19:10:00,
2013-04-19 14:11:00,38.3,26.4,29.42,NW,312,15.0,22.0,62,0.00,,,0.01,Wunderground v.1.15,2013-04-19 19:11:00,
2013-04-19 14:12:00,38.3,26.8,29.42,NW,312,12.0,22.0,63,0.00,,,0.01,Wunderground v.1.15,2013-04-19 19:12:00,
2013-04-19 14:13:00,38.2,26.3,29.42,WNW,291,28.0,28.0,62,0.00,,,0.01,Wunderground v.1.15,2013-04-19 19:13:00,
2013-04-19 14:15:00,38.0,25.3,29.42,NW,311,24.0,29.0,60,0.00,,,0.01,Wunderground v.1.15,2013-04-19 19:15:00,
2013-04-19 14:16:00,37.9,24.8,29.42,WNW,294,19.0,29.0,59,0.00,,,0.01,Wunderground v.1.15,2013-04-19 19:16:00,
2013-04-19 14:17:00,37.8,24.7,29.42,West,274,22.0,29.0,59,0.00,,,0.01,Wunderground v.1.15,2013-04-19 19:17:00,
2013-04-19 14:18:00,37.8,24.7,29.42,West,261,22.0,22.0,59,0.00,,,0.01,Wunderground v.1.15,2013-04-19 19:18:00,
2013-04-19 14:22:00,37.3,25.1,29.42,WNW,289,19.0,34.0,61,0.00,,,0.01,Wunderground v.1.15,2013-04-19 19:22:00,
2013-04-19 14:23:00,37.3,25.1,29.42,WNW,292,34.0,34.0,61,0.00,,,0.01,Wunderground v.1.15,2013-04-19 19:23:00,
2013-04-19 14:24:00,37.3,24.7,29.42,West,278,11.0,34.0,60,0.00,,,0.01,Wunderground v.1.15,2013-04-19 19:24:00,
2013-04-19 14:26:00,37.5,25.7,29.44,WNW,295,11.0,34.0,62,0.00,,,0.01,Wunderground v.1.15,2013-04-19 19:26:00,
2013-04-19 14:27:00,37.5,25.7,29.44,NW,307,19.0,34.0,62,0.00,,,0.01,Wunderground v.1.15,2013-04-19 19:27:00,
2013-04-19 14:28:00,37.6,25.4,29.44,WNW,300,12.0,22.0,61,0.00,,,0.01,Wunderground v.1.15,2013-04-19 19:28:00,
2013-04-19 14:29:00,37.6,25.4,29.44,WNW,301,17.0,22.0,61,0.00,,,0.01,Wunderground v.1.15,2013-04-19 19:29:00,
2013-04-19 14:32:00,37.9,25.6,29.44,WNW,290,15.0,23.0,61,0.00,,,0.01,Wunderground v.1.15,2013-04-19 19:32:00,
2013-04-19 14:34:00,38.3,25.6,29.44,WNW,299,23.0,23.0,60,0.00,,,0.01,Wunderground v.1.15,2013-04-19 19:34:00,
2013-04-19 14:35:00,38.3,25.2,29.44,WNW,289,24.0,25.0,59,0.00,,,0.01,Wunderground v.1.15,2013-04-19 19:35:00,
2013-04-19 14:37:00,38.6,25.9,29.44,West,281,19.0,25.0,60,0.00,,,0.01,Wunderground v.1.15,2013-04-19 19:37:00,
2013-04-19 14:38:00,38.6,25.5,29.44,NW,309,21.0,25.0,59,0.00,,,0.01,Wunderground v.1.15,2013-04-19 19:38:00,
2013-04-19 14:40:00,38.8,25.7,29.45,NW,312,16.0,25.0,59,0.00,,,0.01,Wunderground v.1.15,2013-04-19 19:40:00,
2013-04-19 14:41:00,38.8,26.1,29.45,West,279,14.0,25.0,60,0.00,,,0.01,Wunderground v.1.15,2013-04-19 19:41:00,
2013-04-19 14:43:00,38.6,25.1,29.45,WNW,293,20.0,28.0,58,0.00,,,0.01,Wunderground v.1.15,2013-04-19 19:43:00,
2013-04-19 14:45:00,38.6,25.9,29.45,West,262,22.0,28.0,60,0.00,,,0.01,Wunderground v.1.15,2013-04-19 19:45:00,
2013-04-19 14:47:00,38.5,25.4,29.45,WNW,289,24.0,28.0,59,0.00,,,0.01,Wunderground v.1.15,2013-04-19 19:47:00,
2013-04-19 14:48:00,38.5,25.4,29.45,WNW,302,21.0,23.0,59,0.00,,,0.01,Wunderground v.1.15,2013-04-19 19:48:00,
2013-04-19 14:52:00,38.6,25.9,29.45,West,281,22.0,29.0,60,0.00,,,0.01,Wunderground v.1.15,2013-04-19 19:52:00,
2013-04-19 14:53:00,38.8,25.7,29.45,West,276,21.0,29.0,59,0.00,,,0.01,Wunderground v.1.15,2013-04-19 19:53:00,
2013-04-19 14:54:00,38.8,26.5,29.45,WNW,295,22.0,29.0,61,0.00,,,0.01,Wunderground v.1.15,2013-04-19 19:54:00,
2013-04-19 14:58:00,38.3,24.8,29.45,WNW,293,26.0,26.0,58,0.00,,,0.01,Wunderground v.1.15,2013-04-19 19:58:00,
2013-04-19 14:59:00,38.3,24.8,29.45,WNW,302,27.0,33.0,58,0.00,,,0.01,Wunderground v.1.15,2013-04-19 19:59:00,
2013-04-19 15:00:00,38.2,24.7,29.45,NW,310,17.0,33.0,58,0.00,,,0.01,Wunderground v.1.15,2013-04-19 20:00:00,
2013-04-19 15:03:00,38.0,24.9,29.45,NW,304,18.0,33.0,59,0.00,,,0.01,Wunderground v.1.15,2013-04-19 20:03:00,
2013-04-19 15:04:00,37.9,24.8,29.45,NW,304,16.0,33.0,59,0.00,,,0.01,Wunderground v.1.15,2013-04-19 20:04:00,
2013-04-19 15:07:00,37.9,25.2,29.45,WNW,300,19.0,33.0,60,0.00,,,0.01,Wunderground v.1.15,2013-04-19 20:07:00,
2013-04-19 15:09:00,37.8,25.1,29.45,WNW,288,22.0,27.0,60,0.00,,,0.01,Wunderground v.1.15,2013-04-19 20:09:00,
2013-04-19 15:12:00,37.9,25.2,29.46,WSW,252,22.0,32.0,60,0.00,,,0.01,Wunderground v.1.15,2013-04-19 20:12:00,
2013-04-19 15:14:00,37.9,25.2,29.46,West,262,24.0,32.0,60,0.00,,,0.01,Wunderground v.1.15,2013-04-19 20:14:00,
2013-04-19 15:15:00,37.9,25.2,29.46,WNW,302,15.0,32.0,60,0.00,,,0.01,Wunderground v.1.15,2013-04-19 20:15:00,
2013-04-19 15:16:00,37.9,25.2,29.46,West,270,16.0,32.0,60,0.00,,,0.01,Wunderground v.1.15,2013-04-19 20:16:00,
2013-04-19 15:19:00,37.8,25.5,29.46,WNW,283,31.0,31.0,61,0.00,,,0.01,Wunderground v.1.15,2013-04-19 20:19:00,
2013-04-19 15:20:00,37.6,25.4,29.46,WNW,284,25.0,31.0,61,0.00,,,0.01,Wunderground v.1.15,2013-04-19 20:20:00,
2013-04-19 15:21:00,37.6,25.7,29.46,West,277,17.0,31.0,62,0.00,,,0.01,Wunderground v.1.15,2013-04-19 20:21:00,
2013-04-19 15:25:00,37.2,25.4,29.47,WNW,295,19.0,31.0,62,0.00,,,0.01,Wunderground v.1.15,2013-04-19 20:25:00,
2013-04-19 15:26:00,37.2,25.4,29.47,WNW,288,22.0,31.0,62,0.00,,,0.01,Wunderground v.1.15,2013-04-19 20:26:00,
2013-04-19 15:27:00,37.0,25.2,29.47,WNW,290,12.0,31.0,62,0.00,,,0.01,Wunderground v.1.15,2013-04-19 20:27:00,
2013-04-19 15:28:00,37.0,25.2,29.47,West,262,22.0,22.0,62,0.00,,,0.01,Wunderground v.1.15,2013-04-19 20:28:00,
2013-04-19 15:30:00,37.2,26.5,29.47,West,276,15.0,22.0,65,0.00,,,0.01,Wunderground v.1.15,2013-04-19 20:30:00,
2013-04-19 15:32:00,37.3,25.8,29.47,WNW,295,21.0,28.0,63,0.00,,,0.01,Wunderground v.1.15,2013-04-19 20:32:00,
2013-04-19 15:33:00,37.6,26.1,29.47,NW,304,15.0,28.0,63,0.00,,,0.01,Wunderground v.1.15,2013-04-19 20:33:00,
2013-04-19 15:35:00,38.0,27.3,29.47,NW,311,17.0,28.0,65,0.00,,,0.01,Wunderground v.1.15,2013-04-19 20:35:00,
2013-04-19 15:37:00,38.2,25.9,29.47,WNW,303,26.0,33.0,61,0.00,,,0.01,Wunderground v.1.15,2013-04-19 20:37:00,
2013-04-19 15:39:00,38.2,26.3,29.47,NW,321,18.0,23.0,62,0.00,,,0.01,Wunderground v.1.15,2013-04-19 20:39:00,
2013-04-19 15:40:00,38.2,26.7,29.48,NW,317,20.0,31.0,63,0.00,,,0.01,Wunderground v.1.15,2013-04-19 20:40:00,
2013-04-19 15:41:00,38.0,25.7,29.48,NW,312,25.0,31.0,61,0.00,,,0.01,Wunderground v.1.15,2013-04-19 20:41:00,
2013-04-19 15:42:00,38.0,26.1,29.48,NW,307,30.0,31.0,62,0.00,,,0.01,Wunderground v.1.15,2013-04-19 20:42:00,
2013-04-19 15:45:00,37.2,25.4,29.48,NW,306,29.0,38.0,62,0.00,,,0.01,Wunderground v.1.15,2013-04-19 20:45:00,
2013-04-19 15:46:00,37.2,25.4,29.48,NW,325,32.0,38.0,62,0.00,,,0.01,Wunderground v.1.15,2013-04-19 20:46:00,
2013-04-19 15:47:00,36.8,25.0,29.48,NW,307,27.0,38.0,62,0.00,,,0.01,Wunderground v.1.15,2013-04-19 20:47:00,
2013-04-19 15:51:00,36.6,25.9,29.48,WNW,293,18.0,26.0,65,0.00,,,0.01,Wunderground v.1.15,2013-04-19 20:51:00,
2013-04-19 15:53:00,36.6,25.9,29.48,NW,312,25.0,26.0,65,0.00,,,0.01,Wunderground v.1.15,2013-04-19 20:53:00,
2013-04-19 15:54:00,36.8,25.8,29.48,NW,322,16.0,26.0,64,0.00,,,0.01,Wunderground v.1.15,2013-04-19 20:54:00,
2013-04-19 15:57:00,36.9,26.2,29.50,NW,304,26.0,29.0,65,0.00,,,0.01,Wunderground v.1.15,2013-04-19 20:57:00,
2013-04-19 15:58:00,36.9,26.2,29.50,NW,309,22.0,22.0,65,0.00,,,0.01,Wunderground v.1.15,2013-04-19 20:58:00,
2013-04-19 15:59:00,36.9,25.9,29.50,NW,322,23.0,26.0,64,0.00,,,0.01,Wunderground v.1.15,2013-04-19 20:59:00,
2013-04-19 16:03:00,36.8,25.8,29.50,NW,306,25.0,31.0,64,0.00,,,0.01,Wunderground v.1.15,2013-04-19 21:03:00,
2013-04-19 16:04:00,36.6,25.6,29.50,NW,316,20.0,31.0,64,0.00,,,0.01,Wunderground v.1.15,2013-04-19 21:04:00,
2013-04-19 16:07:00,36.6,26.3,29.50,NW,311,15.0,31.0,66,0.00,,,0.01,Wunderground v.1.15,2013-04-19 21:07:00,
2013-04-19 16:08:00,36.6,26.7,29.50,WNW,300,23.0,27.0,67,0.00,,,0.01,Wunderground v.1.15,2013-04-19 21:08:00,
2013-04-19 16:09:00,36.5,26.9,29.50,WNW,302,23.0,29.0,68,0.00,,,0.01,Wunderground v.1.15,2013-04-19 21:09:00,
2013-04-19 16:12:00,36.0,26.8,29.50,NW,316,21.0,29.0,69,0.00,,,0.01,Wunderground v.1.15,2013-04-19 21:12:00,
2013-04-19 16:14:00,35.9,26.7,29.50,NW,305,19.0,29.0,69,0.00,,,0.01,Wunderground v.1.15,2013-04-19 21:14:00,
2013-04-19 16:15:00,35.9,26.4,29.50,NW,311,21.0,29.0,68,0.00,,,0.01,Wunderground v.1.15,2013-04-19 21:15:00,
2013-04-19 16:16:00,35.9,26.4,29.50,WNW,294,18.0,29.0,68,0.00,,,0.01,Wunderground v.1.15,2013-04-19 21:16:00,
2013-04-19 16:18:00,36.0,26.1,29.50,WNW,282,14.0,21.0,67,0.00,,,0.01,Wunderground v.1.15,2013-04-19 21:18:00,
2013-04-19 16:19:00,36.0,26.1,29.50,WNW,285,12.0,22.0,67,0.00,,,0.01,Wunderground v.1.15,2013-04-19 21:19:00,
2013-04-19 16:20:00,36.0,25.7,29.50,WNW,285,16.0,22.0,66,0.00,,,0.01,Wunderground v.1.15,2013-04-19 21:20:00,
2013-04-19 16:21:00,36.2,26.3,29.50,WNW,296,13.0,22.0,67,0.00,,,0.01,Wunderground v.1.15,2013-04-19 21:21:00,
2013-04-19 16:23:00,36.3,26.4,29.50,WNW,296,20.0,24.0,67,0.00,,,0.01,Wunderground v.1.15,2013-04-19 21:23:00,
2013-04-19 16:25:00,36.5,26.2,29.52,NW,305,18.0,24.0,66,0.00,,,0.01,Wunderground v.1.15,2013-04-19 21:25:00,
2013-04-19 16:26:00,36.6,26.3,29.52,NW,307,13.0,24.0,66,0.00,,,0.01,Wunderground v.1.15,2013-04-19 21:26:00,
2013-04-19 16:28:00,36.8,26.1,29.52,WNW,295,18.0,30.0,65,0.00,,,0.01,Wunderground v.1.15,2013-04-19 21:28:00,
2013-04-19 16:29:00,36.8,25.8,29.52,NW,320,23.0,25.0,64,0.00,,,0.01,Wunderground v.1.15,2013-04-19 21:29:00,
2013-04-19 16:30:00,36.9,25.9,29.52,NW,311,17.0,29.0,64,0.00,,,0.01,Wunderground v.1.15,2013-04-19 21:30:00,
2013-04-19 16:32:00,37.0,25.9,29.52,NNW,330,18.0,29.0,64,0.00,,,0.01,Wunderground v.1.15,2013-04-19 21:32:00,
2013-04-19 16:33:00,37.0,26.3,29.52,NW,306,14.0,29.0,65,0.00,,,0.01,Wunderground v.1.15,2013-04-19 21:33:00,
2013-04-19 16:34:00,37.0,25.6,29.52,NW,314,20.0,29.0,63,0.00,,,0.01,Wunderground v.1.15,2013-04-19 21:34:00,
2013-04-19 16:37:00,37.3,26.2,29.52,NW,314,20.0,29.0,64,0.00,,,0.01,Wunderground v.1.15,2013-04-19 21:37:00,
2013-04-19 16:38:00,37.3,25.8,29.52,NW,305,17.0,19.0,63,0.00,,,0.01,Wunderground v.1.15,2013-04-19 21:38:00,
2013-04-19 16:39:00,37.3,25.8,29.53,NW,306,17.0,21.0,63,0.00,,,0.01,Wunderground v.1.15,2013-04-19 21:39:00,
2013-04-19 16:42:00,37.2,26.5,29.53,NW,316,22.0,26.0,65,0.00,,,0.01,Wunderground v.1.15,2013-04-19 21:42:00,
2013-04-19 16:43:00,37.0,26.7,29.53,NNW,330,22.0,26.0,66,0.00,,,0.01,Wunderground v.1.15,2013-04-19 21:43:00,
2013-04-19 16:45:00,36.5,28.0,29.53,NW,312,17.0,26.0,71,0.00,,,0.01,Wunderground v.1.15,2013-04-19 21:45:00,
2013-04-19 16:48:00,35.5,28.4,29.53,NNW,342,15.0,21.0,75,0.00,,,0.01,Wunderground v.1.15,2013-04-19 21:48:00,
2013-04-19 16:49:00,35.3,28.2,29.53,WNW,295,14.0,21.0,75,0.00,,,0.01,Wunderground v.1.15,2013-04-19 21:49:00,
2013-04-19 16:50:00,35.0,27.9,29.53,NW,321,15.0,21.0,75,0.00,,,0.01,Wunderground v.1.15,2013-04-19 21:50:00,
2013-04-19 16:51:00,35.0,27.9,29.53,WNW,302,18.0,21.0,75,0.00,,,0.01,Wunderground v.1.15,2013-04-19 21:51:00,
2013-04-19 16:54:00,34.9,28.1,29.53,WNW,301,10.0,22.0,76,0.00,,,0.01,Wunderground v.1.15,2013-04-19 21:54:00,
2013-04-19 16:55:00,34.9,28.1,29.55,NW,313,13.0,22.0,76,0.00,,,0.01,Wunderground v.1.15,2013-04-19 21:55:00,
2013-04-19 16:56:00,34.9,27.8,29.55,NW,309,15.0,24.0,75,0.00,,,0.01,Wunderground v.1.15,2013-04-19 21:56:00,
2013-04-19 16:57:00,34.9,28.1,29.55,WNW,303,16.0,24.0,76,0.00,,,0.01,Wunderground v.1.15,2013-04-19 21:57:00,
2013-04-19 16:59:00,35.2,27.7,29.55,WNW,303,17.0,21.0,74,0.00,,,0.01,Wunderground v.1.15,2013-04-19 21:59:00,
2013-04-19 17:01:00,35.3,28.2,29.55,NW,309,13.0,21.0,75,0.00,,,0.01,Wunderground v.1.15,2013-04-19 22:01:00,
2013-04-19 17:03:00,35.5,27.0,29.55,WNW,297,13.0,24.0,71,0.00,,,0.01,Wunderground v.1.15,2013-04-19 22:03:00,
2013-04-19 17:04:00,35.5,27.0,29.55,WNW,302,26.0,26.0,71,0.00,,,0.01,Wunderground v.1.15,2013-04-19 22:04:00,
2013-04-19 17:06:00,35.8,27.3,29.55,NW,323,17.0,26.0,71,0.00,,,0.01,Wunderground v.1.15,2013-04-19 22:06:00,
2013-04-19 17:09:00,35.6,27.8,29.55,WNW,295,20.0,23.0,73,0.00,,,0.01,Wunderground v.1.15,2013-04-19 22:09:00,
2013-04-19 17:10:00,35.3,28.2,29.56,NW,304,18.0,24.0,75,0.00,,,0.01,Wunderground v.1.15,2013-04-19 22:10:00,
2013-04-19 17:11:00,35.0,27.9,29.56,NW,316,25.0,25.0,75,0.00,,,0.01,Wunderground v.1.15,2013-04-19 22:11:00,
2013-04-19 17:12:00,34.9,28.1,29.56,NW,304,14.0,25.0,76,0.00,,,0.01,Wunderground v.1.15,2013-04-19 22:12:00,
2013-04-19 17:15:00,34.9,28.1,29.56,NW,309,13.0,25.0,76,0.00,,,0.01,Wunderground v.1.15,2013-04-19 22:15:00,
2013-04-19 17:16:00,34.9,28.4,29.56,WNW,288,13.0,25.0,77,0.00,,,0.01,Wunderground v.1.15,2013-04-19 22:16:00,
2013-04-19 17:17:00,34.9,28.4,29.56,NNW,328,13.0,25.0,77,0.00,,,0.01,Wunderground v.1.15,2013-04-19 22:17:00,
2013-04-19 17:18:00,35.0,28.5,29.56,WNW,294,18.0,18.0,77,0.00,,,0.01,Wunderground v.1.15,2013-04-19 22:18:00,
2013-04-19 17:20:00,35.0,27.9,29.56,NW,314,17.0,20.0,75,0.00,,,0.01,Wunderground v.1.15,2013-04-19 22:20:00,
2013-04-19 17:21:00,35.0,27.5,29.56,NW,316,13.0,20.0,74,0.00,,,0.01,Wunderground v.1.15,2013-04-19 22:21:00,
2013-04-19 17:22:00,35.2,28.1,29.56,NW,314,18.0,20.0,75,0.00,,,0.01,Wunderground v.1.15,2013-04-19 22:22:00,
2013-04-19 17:25:00,35.3,27.5,29.57,NW,309,24.0,24.0,73,0.00,,,0.01,Wunderground v.1.15,2013-04-19 22:25:00,
2013-04-19 17:26:00,35.5,27.4,29.57,NNW,329,17.0,24.0,72,0.00,,,0.01,Wunderground v.1.15,2013-04-19 22:26:00,
2013-04-19 17:27:00,35.5,27.0,29.57,NNW,333,20.0,24.0,71,0.00,,,0.01,Wunderground v.1.15,2013-04-19 22:27:00,
2013-04-19 17:28:00,35.5,27.4,29.57,NW,315,15.0,17.0,72,0.00,,,0.01,Wunderground v.1.15,2013-04-19 22:28:00,
2013-04-19 17:31:00,35.8,27.7,29.57,NW,304,11.0,19.0,72,0.00,,,0.01,Wunderground v.1.15,2013-04-19 22:31:00,
2013-04-19 17:32:00,35.8,27.7,29.57,WNW,300,7.0,19.0,72,0.00,,,0.01,Wunderground v.1.15,2013-04-19 22:32:00,
2013-04-19 17:33:00,35.8,27.7,29.57,WNW,291,18.0,24.0,72,0.00,,,0.01,Wunderground v.1.15,2013-04-19 22:33:00,
2013-04-19 17:36:00,36.0,27.5,29.57,NW,315,25.0,27.0,71,0.00,,,0.01,Wunderground v.1.15,2013-04-19 22:36:00,
2013-04-19 17:37:00,36.0,27.2,29.57,NW,324,12.0,27.0,70,0.00,,,0.01,Wunderground v.1.15,2013-04-19 22:37:00,
2013-04-19 17:38:00,36.0,27.2,29.57,WNW,303,21.0,21.0,70,0.00,,,0.01,Wunderground v.1.15,2013-04-19 22:38:00,
2013-04-19 17:40:00,35.9,26.7,29.58,NW,321,21.0,27.0,69,0.00,,,0.01,Wunderground v.1.15,2013-04-19 22:40:00,
2013-04-19 17:42:00,35.8,26.6,29.58,NW,308,25.0,28.0,69,0.00,,,0.01,Wunderground v.1.15,2013-04-19 22:42:00,
2013-04-19 17:43:00,35.8,27.0,29.58,WNW,291,21.0,28.0,70,0.00,,,0.01,Wunderground v.1.15,2013-04-19 22:43:00,
2013-04-19 17:44:00,35.5,27.0,29.58,NW,307,17.0,28.0,71,0.00,,,0.01,Wunderground v.1.15,2013-04-19 22:44:00,
2013-04-19 17:45:00,35.5,27.4,29.58,NW,316,14.0,28.0,72,0.00,,,0.01,Wunderground v.1.15,2013-04-19 22:45:00,
2013-04-19 17:48:00,34.7,27.6,29.58,NNW,337,19.0,27.0,75,0.00,,,0.01,Wunderground v.1.15,2013-04-19 22:48:00,
2013-04-19 17:50:00,34.4,27.9,29.58,NW,311,17.0,27.0,77,0.00,,,0.01,Wunderground v.1.15,2013-04-19 22:50:00,
2013-04-19 17:51:00,34.3,28.5,29.58,NNW,342,12.0,27.0,79,0.00,,,0.01,Wunderground v.1.15,2013-04-19 22:51:00,
2013-04-19 17:54:00,34.0,28.8,29.58,NW,315,16.0,27.0,81,0.00,,,0.01,Wunderground v.1.15,2013-04-19 22:54:00,
2013-04-19 17:55:00,33.8,28.6,29.59,NW,326,14.0,27.0,81,0.00,,,0.01,Wunderground v.1.15,2013-04-19 22:55:00,
2013-04-19 17:57:00,33.7,28.8,29.59,NW,304,14.0,27.0,82,0.00,,,0.01,Wunderground v.1.15,2013-04-19 22:57:00,
2013-04-19 17:59:00,33.7,29.1,29.59,NW,325,16.0,19.0,83,0.00,,,0.01,Wunderground v.1.15,2013-04-19 22:59:00,
2013-04-19 18:00:00,33.5,28.9,29.59,North,349,18.0,22.0,83,0.00,,,0.01,Wunderground v.1.15,2013-04-19 23:00:00,
2013-04-19 18:01:00,33.5,28.9,29.59,NNW,341,15.0,22.0,83,0.00,,,0.01,Wunderground v.1.15,2013-04-19 23:01:00,
2013-04-19 18:03:00,33.5,28.9,29.59,NW,315,20.0,22.0,83,0.00,,,0.01,Wunderground v.1.15,2013-04-19 23:03:00,
2013-04-19 18:05:00,33.5,28.9,29.59,NW,313,14.0,22.0,83,0.00,,,0.01,Wunderground v.1.15,2013-04-19 23:05:00,
2013-04-19 18:06:00,33.5,28.9,29.59,NNW,337,10.0,22.0,83,0.00,,,0.01,Wunderground v.1.15,2013-04-19 23:06:00,
2013-04-19 18:08:00,33.7,29.1,29.59,NNW,342,12.0,22.0,83,0.00,,,0.01,Wunderground v.1.15,2013-04-19 23:08:00,
2013-04-19 18:09:00,33.7,29.1,29.59,NW,313,10.0,16.0,83,0.00,,,0.01,Wunderground v.1.15,2013-04-19 23:09:00,
2013-04-19 18:12:00,33.8,29.2,29.60,NNW,345,13.0,16.0,83,0.00,,,0.01,Wunderground v.1.15,2013-04-19 23:12:00,
2013-04-19 18:13:00,33.8,29.2,29.60,NW,305,20.0,25.0,83,0.00,,,0.01,Wunderground v.1.15,2013-04-19 23:13:00,
2013-04-19 18:14:00,33.8,28.9,29.60,WNW,302,18.0,26.0,82,0.00,,,0.01,Wunderground v.1.15,2013-04-19 23:14:00,
2013-04-19 18:15:00,33.8,28.9,29.60,NW,316,17.0,26.0,82,0.00,,,0.01,Wunderground v.1.15,2013-04-19 23:15:00,
2013-04-19 18:17:00,33.8,28.9,29.60,NW,309,17.0,26.0,82,0.00,,,0.01,Wunderground v.1.15,2013-04-19 23:17:00,
2013-04-19 18:19:00,34.0,29.1,29.60,NW,307,10.0,15.0,82,0.00,,,0.01,Wunderground v.1.15,2013-04-19 23:19:00,
2013-04-19 18:20:00,34.0,28.8,29.60,NW,317,15.0,18.0,81,0.00,,,0.01,Wunderground v.1.15,2013-04-19 23:20:00,
2013-04-19 18:23:00,34.1,28.6,29.60,WNW,290,11.0,21.0,80,0.00,,,0.01,Wunderground v.1.15,2013-04-19 23:23:00,
2013-04-19 18:24:00,34.1,28.3,29.61,WNW,294,16.0,21.0,79,0.00,,,0.01,Wunderground v.1.15,2013-04-19 23:24:00,
2013-04-19 18:25:00,34.1,28.3,29.61,WNW,298,17.0,21.0,79,0.00,,,0.01,Wunderground v.1.15,2013-04-19 23:25:00,
2013-04-19 18:26:00,34.1,28.3,29.61,WNW,295,15.0,21.0,79,0.00,,,0.01,Wunderground v.1.15,2013-04-19 23:26:00,
2013-04-19 18:28:00,34.1,28.3,29.61,NW,304,12.0,14.0,79,0.00,,,0.01,Wunderground v.1.15,2013-04-19 23:28:00,
2013-04-19 18:30:00,34.3,28.2,29.61,WNW,297,13.0,25.0,78,0.00,,,0.01,Wunderground v.1.15,2013-04-19 23:30:00,
2013-04-19 18:31:00,34.3,27.8,29.61,NW,309,12.0,25.0,77,0.00,,,0.01,Wunderground v.1.15,2013-04-19 23:31:00,
2013-04-19 18:32:00,34.3,27.8,29.61,WNW,290,14.0,25.0,77,0.00,,,0.01,Wunderground v.1.15,2013-04-19 23:32:00,
2013-04-19 18:33:00,34.0,27.5,29.61,WNW,300,35.0,35.0,77,0.00,,,0.01,Wunderground v.1.15,2013-04-19 23:33:00,
2013-04-19 18:35:00,33.1,27.3,29.61,NW,309,31.0,35.0,79,0.00,,,0.01,Wunderground v.1.15,2013-04-19 23:35:00,
2013-04-19 18:36:00,32.7,27.5,29.61,NNW,327,19.0,35.0,81,0.00,,,0.01,Wunderground v.1.15,2013-04-19 23:36:00,
2013-04-19 18:39:00,31.5,26.0,29.61,NW,309,13.0,22.0,80,0.00,,,0.01,Wunderground v.1.15,2013-04-19 23:39:00,
2013-04-19 18:41:00,31.2,25.4,29.62,NW,316,14.0,22.0,79,0.00,,,0.01,Wunderground v.1.15,2013-04-19 23:41:00,
2013-04-19 18:42:00,31.2,25.4,29.62,WNW,297,11.0,22.0,79,0.00,,,0.01,Wunderground v.1.15,2013-04-19 23:42:00,
2013-04-19 18:44:00,31.2,25.4,29.62,NW,311,14.0,22.0,79,0.00,,,0.01,Wunderground v.1.15,2013-04-19 23:44:00,
2013-04-19 18:45:00,31.2,25.4,29.62,WNW,300,14.0,22.0,79,0.00,,,0.01,Wunderground v.1.15,2013-04-19 23:45:00,
2013-04-19 18:46:00,31.2,25.4,29.62,NW,312,10.0,22.0,79,0.00,,,0.01,Wunderground v.1.15,2013-04-19 23:46:00,
2013-04-19 18:47:00,31.3,25.5,29.62,WNW,299,11.0,22.0,79,0.00,,,0.01,Wunderground v.1.15,2013-04-19 23:47:00,
2013-04-19 18:48:00,31.3,24.9,29.62,WNW,288,12.0,13.0,77,0.00,,,0.01,Wunderground v.1.15,2013-04-19 23:48:00,
2013-04-19 18:50:00,31.6,25.2,29.62,West,281,12.0,15.0,77,0.00,,,0.01,Wunderground v.1.15,2013-04-19 23:50:00,
2013-04-19 18:51:00,31.8,25.1,29.62,WNW,286,12.0,15.0,76,0.00,,,0.01,Wunderground v.1.15,2013-04-19 23:51:00,
2013-04-19 18:52:00,31.8,25.1,29.62,West,279,17.0,17.0,76,0.00,,,0.01,Wunderground v.1.15,2013-04-19 23:52:00,
2013-04-19 18:53:00,31.9,24.9,29.62,WNW,301,16.0,17.0,75,0.00,,,0.01,Wunderground v.1.15,2013-04-19 23:53:00,
2013-04-19 18:55:00,32.1,24.4,29.64,WNW,284,14.0,18.0,73,0.00,,,0.01,Wunderground v.1.15,2013-04-19 23:55:00,
2013-04-19 18:56:00,32.2,24.5,29.64,WNW,302,19.0,19.0,73,0.00,,,0.01,Wunderground v.1.15,2013-04-19 23:56:00,
2013-04-19 18:57:00,32.2,24.2,29.64,NW,318,13.0,19.0,72,0.00,,,0.01,Wunderground v.1.15,2013-04-19 23:57:00,
2013-04-19 18:58:00,32.4,24.4,29.64,NW,321,9.0,13.0,72,0.00,,,0.01,Wunderground v.1.15,2013-04-19 23:58:00,
2013-04-19 18:59:00,32.4,24.4,29.64,NW,312,10.0,16.0,72,0.00,,,0.01,Wunderground v.1.15,2013-04-19 23:59:00,
2013-04-19 19:01:00,32.5,24.1,29.64,NW,305,13.0,16.0,71,0.00,,,0.01,Wunderground v.1.15,2013-04-20 00:01:00,
2013-04-19 19:03:00,32.5,23.8,29.64,WNW,297,14.0,17.0,70,0.00,,,0.01,Wunderground v.1.15,2013-04-20 00:03:00,
2013-04-19 19:04:00,32.7,23.6,29.64,NW,320,15.0,17.0,69,0.00,,,0.01,Wunderground v.1.15,2013-04-20 00:04:00,
2013-04-19 19:08:00,32.8,24.1,29.64,NW,318,11.0,17.0,70,0.00,,,0.01,Wunderground v.1.15,2013-04-20 00:08:00,
2013-04-19 19:10:00,32.9,23.8,29.64,WNW,289,17.0,20.0,69,0.00,,,0.01,Wunderground v.1.15,2013-04-20 00:10:00,
2013-04-19 19:14:00,33.2,24.1,29.64,NW,318,7.0,20.0,69,0.00,,,0.01,Wunderground v.1.15,2013-04-20 00:14:00,
2013-04-19 19:15:00,33.2,24.1,29.64,WNW,300,9.0,20.0,69,0.00,,,0.01,Wunderground v.1.15,2013-04-20 00:15:00,
2013-04-19 19:16:00,33.2,24.1,29.64,WNW,297,11.0,20.0,69,0.00,,,0.01,Wunderground v.1.15,2013-04-20 00:16:00,
2013-04-19 19:17:00,33.4,24.3,29.64,NW,312,12.0,20.0,69,0.00,,,0.01,Wunderground v.1.15,2013-04-20 00:17:00,
2013-04-19 19:20:00,33.5,24.4,29.64,NNW,330,17.0,19.0,69,0.00,,,0.01,Wunderground v.1.15,2013-04-20 00:20:00,
2013-04-19 19:21:00,33.5,24.4,29.64,NW,319,13.0,21.0,69,0.00,,,0.01,Wunderground v.1.15,2013-04-20 00:21:00,
2013-04-19 19:23:00,33.7,24.6,29.64,NW,316,19.0,26.0,69,0.00,,,0.01,Wunderground v.1.15,2013-04-20 00:23:00,
2013-04-19 19:26:00,33.7,25.0,29.65,NW,317,18.0,27.0,70,0.00,,,0.01,Wunderground v.1.15,2013-04-20 00:26:00,
2013-04-19 19:29:00,33.5,24.8,29.65,NW,317,18.0,18.0,70,0.00,,,0.01,Wunderground v.1.15,2013-04-20 00:29:00,
2013-04-19 19:32:00,33.5,25.1,29.65,NW,316,21.0,23.0,71,0.00,,,0.01,Wunderground v.1.15,2013-04-20 00:32:00,
2013-04-19 19:34:00,33.5,24.8,29.65,NW,314,14.0,23.0,70,0.00,,,0.01,Wunderground v.1.15,2013-04-20 00:34:00,
2013-04-19 19:35:00,33.5,24.4,29.65,WNW,297,14.0,23.0,69,0.00,,,0.01,Wunderground v.1.15,2013-04-20 00:35:00,
2013-04-19 19:37:00,33.5,24.8,29.65,NW,305,10.0,23.0,70,0.00,,,0.01,Wunderground v.1.15,2013-04-20 00:37:00,
2013-04-19 19:38:00,33.5,24.8,29.65,NW,308,12.0,15.0,70,0.00,,,0.01,Wunderground v.1.15,2013-04-20 00:38:00,
2013-04-19 19:40:00,33.5,25.1,29.66,NW,305,13.0,20.0,71,0.00,,,0.01,Wunderground v.1.15,2013-04-20 00:40:00,
2013-04-19 19:42:00,33.5,25.1,29.66,WNW,303,13.0,20.0,71,0.00,,,0.01,Wunderground v.1.15,2013-04-20 00:42:00,
2013-04-19 19:43:00,33.7,25.0,29.66,NW,309,14.0,20.0,70,0.00,,,0.01,Wunderground v.1.15,2013-04-20 00:43:00,
2013-04-19 19:44:00,33.7,25.0,29.66,WNW,291,15.0,20.0,70,0.00,,,0.01,Wunderground v.1.15,2013-04-20 00:44:00,
2013-04-19 19:46:00,33.7,25.0,29.66,NW,316,6.0,20.0,70,0.00,,,0.01,Wunderground v.1.15,2013-04-20 00:46:00,
2013-04-19 19:47:00,33.7,25.3,29.66,NW,307,9.0,20.0,71,0.00,,,0.01,Wunderground v.1.15,2013-04-20 00:47:00,
2013-04-19 19:49:00,33.7,25.3,29.66,NW,314,7.0,13.0,71,0.00,,,0.01,Wunderground v.1.15,2013-04-20 00:49:00,
2013-04-19 19:50:00,33.7,25.3,29.66,NW,307,9.0,13.0,71,0.00,,,0.01,Wunderground v.1.15,2013-04-20 00:50:00,
2013-04-19 19:51:00,33.7,25.3,29.66,NNW,334,9.0,13.0,71,0.00,,,0.01,Wunderground v.1.15,2013-04-20 00:51:00,
2013-04-19 19:52:00,33.7,25.3,29.66,NW,305,12.0,14.0,71,0.00,,,0.01,Wunderground v.1.15,2013-04-20 00:52:00,
2013-04-19 19:53:00,33.7,25.0,29.66,NW,320,11.0,14.0,70,0.00,,,0.01,Wunderground v.1.15,2013-04-20 00:53:00,
2013-04-19 19:54:00,33.7,25.0,29.67,WNW,303,9.0,15.0,70,0.00,,,0.01,Wunderground v.1.15,2013-04-20 00:54:00,
2013-04-19 19:57:00,33.8,25.0,29.67,NW,311,15.0,15.0,70,0.00,,,0.01,Wunderground v.1.15,2013-04-20 00:57:00,
2013-04-19 19:58:00,33.8,24.4,29.67,NW,314,19.0,19.0,68,0.00,,,0.01,Wunderground v.1.15,2013-04-20 00:58:00,
2013-04-19 20:00:00,34.0,24.5,29.67,NW,304,20.0,20.0,68,0.00,,,0.01,Wunderground v.1.15,2013-04-20 01:00:00,
2013-04-19 20:03:00,34.0,23.5,29.67,NW,311,17.0,29.0,65,0.00,,,0.01,Wunderground v.1.15,2013-04-20 01:03:00,
2013-04-19 20:04:00,34.1,23.6,29.67,NNW,335,15.0,29.0,65,0.00,,,0.01,Wunderground v.1.15,2013-04-20 01:04:00,
2013-04-19 20:06:00,34.1,23.6,29.67,NW,318,18.0,29.0,65,0.00,,,0.01,Wunderground v.1.15,2013-04-20 01:06:00,
2013-04-19 20:08:00,34.0,23.5,29.67,WNW,296,20.0,20.0,65,0.00,,,0.01,Wunderground v.1.15,2013-04-20 01:08:00,
2013-04-19 20:10:00,34.0,23.5,29.68,West,276,17.0,25.0,65,0.00,,,0.01,Wunderground v.1.15,2013-04-20 01:10:00,
2013-04-19 20:11:00,34.0,23.8,29.68,NW,304,26.0,26.0,66,0.00,,,0.01,Wunderground v.1.15,2013-04-20 01:11:00,
2013-04-19 20:13:00,34.0,23.5,29.68,WNW,299,12.0,27.0,65,0.00,,,0.01,Wunderground v.1.15,2013-04-20 01:13:00,
2013-04-19 20:15:00,33.8,23.3,29.68,WNW,302,14.0,27.0,65,0.00,,,0.01,Wunderground v.1.15,2013-04-20 01:15:00,
2013-04-19 20:16:00,33.8,23.6,29.68,NW,309,19.0,27.0,66,0.00,,,0.01,Wunderground v.1.15,2013-04-20 01:16:00,
2013-04-19 20:17:00,33.8,23.6,29.68,NW,312,14.0,27.0,66,0.00,,,0.01,Wunderground v.1.15,2013-04-20 01:17:00,
2013-04-19 20:18:00,33.8,23.6,29.68,NNW,345,17.0,19.0,66,0.00,,,0.01,Wunderground v.1.15,2013-04-20 01:18:00,
2013-04-19 20:19:00,33.8,24.0,29.68,NNW,329,18.0,22.0,67,0.00,,,0.01,Wunderground v.1.15,2013-04-20 01:19:00,
2013-04-19 20:21:00,33.7,23.9,29.68,NNW,329,13.0,22.0,67,0.00,,,0.01,Wunderground v.1.15,2013-04-20 01:21:00,
2013-04-19 20:22:00,33.7,23.9,29.68,NW,322,11.0,22.0,67,0.00,,,0.01,Wunderground v.1.15,2013-04-20 01:22:00,
2013-04-19 20:23:00,33.7,24.3,29.68,NNW,336,10.0,22.0,68,0.00,,,0.01,Wunderground v.1.15,2013-04-20 01:23:00,
2013-04-19 20:24:00,33.7,24.3,29.68,NW,324,19.0,22.0,68,0.00,,,0.01,Wunderground v.1.15,2013-04-20 01:24:00,
2013-04-19 20:25:00,33.5,23.7,29.70,NW,326,7.0,22.0,67,0.00,,,0.01,Wunderground v.1.15,2013-04-20 01:25:00,
2013-04-19 20:26:00,33.5,23.7,29.70,NW,310,15.0,22.0,67,0.00,,,0.01,Wunderground v.1.15,2013-04-20 01:26:00,
2013-04-19 20:27:00,33.5,23.7,29.70,North,356,17.0,22.0,67,0.00,,,0.01,Wunderground v.1.15,2013-04-20 01:27:00,
2013-04-19 20:29:00,33.4,23.6,29.70,NW,307,13.0,18.0,67,0.00,,,0.01,Wunderground v.1.15,2013-04-20 01:29:00,
2013-04-19 20:30:00,33.4,23.6,29.70,WNW,289,14.0,18.0,67,0.00,,,0.01,Wunderground v.1.15,2013-04-20 01:30:00,
2013-04-19 20:31:00,33.4,23.6,29.70,North,352,11.0,18.0,67,0.00,,,0.01,Wunderground v.1.15,2013-04-20 01:31:00,
2013-04-19 20:32:00,33.4,24.0,29.70,NW,320,19.0,19.0,68,0.00,,,0.01,Wunderground v.1.15,2013-04-20 01:32:00,
2013-04-19 20:34:00,33.4,24.0,29.70,NW,316,10.0,19.0,68,0.00,,,0.01,Wunderground v.1.15,2013-04-20 01:34:00,
2013-04-19 20:35:00,33.4,24.3,29.70,WNW,300,14.0,19.0,69,0.00,,,0.01,Wunderground v.1.15,2013-04-20 01:35:00,
2013-04-19 20:36:00,33.4,24.3,29.70,WNW,303,19.0,19.0,69,0.00,,,0.01,Wunderground v.1.15,2013-04-20 01:36:00,
2013-04-19 20:37:00,33.4,24.3,29.70,NW,304,14.0,19.0,69,0.00,,,0.01,Wunderground v.1.15,2013-04-20 01:37:00,
2013-04-19 20:39:00,33.4,24.3,29.71,WNW,298,14.0,15.0,69,0.00,,,0.01,Wunderground v.1.15,2013-04-20 01:39:00,
2013-04-19 20:41:00,33.4,24.3,29.71,NNW,345,11.0,15.0,69,0.00,,,0.01,Wunderground v.1.15,2013-04-20 01:41:00,
2013-04-19 20:42:00,33.4,24.3,29.71,WNW,300,12.0,15.0,69,0.00,,,0.01,Wunderground v.1.15,2013-04-20 01:42:00,
2013-04-19 20:43:00,33.4,24.3,29.71,NW,317,11.0,15.0,69,0.00,,,0.01,Wunderground v.1.15,2013-04-20 01:43:00,
2013-04-19 20:45:00,33.4,24.7,29.71,WNW,302,11.0,15.0,70,0.00,,,0.01,Wunderground v.1.15,2013-04-20 01:45:00,
2013-04-19 20:46:00,33.4,24.7,29.71,WNW,296,14.0,16.0,70,0.00,,,0.01,Wunderground v.1.15,2013-04-20 01:46:00,
2013-04-19 20:47:00,33.4,24.7,29.71,NW,307,15.0,16.0,70,0.00,,,0.01,Wunderground v.1.15,2013-04-20 01:47:00,
2013-04-19 20:48:00,33.4,24.7,29.71,NW,311,14.0,14.0,70,0.00,,,0.01,Wunderground v.1.15,2013-04-20 01:48:00,
2013-04-19 20:49:00,33.4,24.7,29.71,NW,306,13.0,19.0,70,0.00,,,0.01,Wunderground v.1.15,2013-04-20 01:49:00,
2013-04-19 20:51:00,33.4,24.7,29.71,NW,304,14.0,19.0,70,0.00,,,0.01,Wunderground v.1.15,2013-04-20 01:51:00,
2013-04-19 20:52:00,33.4,24.7,29.71,WNW,285,13.0,19.0,70,0.00,,,0.01,Wunderground v.1.15,2013-04-20 01:52:00,
2013-04-19 20:53:00,33.2,24.5,29.71,NW,307,9.0,19.0,70,0.00,,,0.01,Wunderground v.1.15,2013-04-20 01:53:00,
2013-04-19 20:55:00,33.2,24.8,29.72,NW,307,10.0,19.0,71,0.00,,,0.01,Wunderground v.1.15,2013-04-20 01:55:00,
2013-04-19 20:56:00,33.2,24.8,29.72,WNW,297,12.0,19.0,71,0.00,,,0.01,Wunderground v.1.15,2013-04-20 01:56:00,
2013-04-19 20:57:00,33.2,24.8,29.72,NW,310,14.0,20.0,71,0.00,,,0.01,Wunderground v.1.15,2013-04-20 01:57:00,
2013-04-19 20:58:00,33.2,24.8,29.72,NNW,328,12.0,13.0,71,0.00,,,0.01,Wunderground v.1.15,2013-04-20 01:58:00,
2013-04-19 21:00:00,33.2,24.8,29.72,WNW,302,19.0,19.0,71,0.00,,,0.01,Wunderground v.1.15,2013-04-20 02:00:00,
2013-04-19 21:03:00,33.2,24.8,29.72,WNW,295,11.0,19.0,71,0.00,,,0.01,Wunderground v.1.15,2013-04-20 02:03:00,
2013-04-19 21:04:00,33.2,24.8,29.72,NNW,348,11.0,19.0,71,0.00,,,0.01,Wunderground v.1.15,2013-04-20 02:04:00,
2013-04-19 21:06:00,33.2,24.8,29.72,WNW,290,12.0,19.0,71,0.00,,,0.01,Wunderground v.1.15,2013-04-20 02:06:00,
2013-04-19 21:09:00,33.4,25.3,29.72,NNW,328,10.0,14.0,72,0.00,,,0.01,Wunderground v.1.15,2013-04-20 02:09:00,
2013-04-19 21:11:00,33.2,24.8,29.72,NNW,328,10.0,15.0,71,0.00,,,0.01,Wunderground v.1.15,2013-04-20 02:11:00,
2013-04-19 21:13:00,33.4,25.0,29.72,NNW,345,6.0,15.0,71,0.00,,,0.01,Wunderground v.1.15,2013-04-20 02:13:00,
2013-04-19 21:14:00,33.4,25.0,29.72,NW,319,11.0,15.0,71,0.00,,,0.01,Wunderground v.1.15,2013-04-20 02:14:00,
2013-04-19 21:15:00,33.4,25.0,29.72,NW,307,7.0,15.0,71,0.00,,,0.01,Wunderground v.1.15,2013-04-20 02:15:00,
2013-04-19 21:17:00,33.4,25.3,29.72,North,352,5.0,15.0,72,0.00,,,0.01,Wunderground v.1.15,2013-04-20 02:17:00,
2013-04-19 21:19:00,33.2,25.5,29.72,NNW,335,9.0,12.0,73,0.00,,,0.01,Wunderground v.1.15,2013-04-20 02:19:00,
2013-04-19 21:20:00,33.2,25.5,29.72,NNW,339,7.0,12.0,73,0.00,,,0.01,Wunderground v.1.15,2013-04-20 02:20:00,
2013-04-19 21:22:00,33.1,26.0,29.72,NNW,331,9.0,13.0,75,0.00,,,0.01,Wunderground v.1.15,2013-04-20 02:22:00,
2013-04-19 21:24:00,32.8,26.1,29.72,NW,306,10.0,14.0,76,0.00,,,0.01,Wunderground v.1.15,2013-04-20 02:24:00,
2013-04-19 21:25:00,32.8,26.4,29.74,North,354,19.0,20.0,77,0.00,,,0.01,Wunderground v.1.15,2013-04-20 02:25:00,
2013-04-19 21:26:00,32.7,26.0,29.74,WNW,283,22.0,22.0,76,0.00,,,0.01,Wunderground v.1.15,2013-04-20 02:26:00,
2013-04-19 21:27:00,32.5,25.8,29.74,WNW,294,15.0,23.0,76,0.00,,,0.01,Wunderground v.1.15,2013-04-20 02:27:00,
2013-04-19 21:31:00,32.2,25.8,29.74,NNW,329,13.0,22.0,77,0.00,,,0.01,Wunderground v.1.15,2013-04-20 02:31:00,
2013-04-19 21:32:00,32.1,25.7,29.74,NNW,343,14.0,22.0,77,0.00,,,0.01,Wunderground v.1.15,2013-04-20 02:32:00,
2013-04-19 21:33:00,32.1,25.7,29.74,NNW,327,13.0,22.0,77,0.00,,,0.01,Wunderground v.1.15,2013-04-20 02:33:00,
2013-04-19 21:34:00,32.1,25.7,29.74,NW,314,15.0,22.0,77,0.00,,,0.01,Wunderground v.1.15,2013-04-20 02:34:00,
2013-04-19 21:36:00,32.1,26.3,29.74,NW,321,11.0,22.0,79,0.00,,,0.01,Wunderground v.1.15,2013-04-20 02:36:00,
2013-04-19 21:38:00,31.9,26.4,29.74,NW,314,11.0,14.0,80,0.00,,,0.01,Wunderground v.1.15,2013-04-20 02:38:00,
2013-04-19 21:39:00,31.8,26.6,29.75,NW,314,11.0,14.0,81,0.00,,,0.01,Wunderground v.1.15,2013-04-20 02:39:00,
2013-04-19 21:41:00,31.6,26.7,29.75,WNW,292,10.0,14.0,82,0.00,,,0.01,Wunderground v.1.15,2013-04-20 02:41:00,
2013-04-19 21:42:00,31.6,26.7,29.75,NW,315,15.0,16.0,82,0.00,,,0.01,Wunderground v.1.15,2013-04-20 02:42:00,
2013-04-19 21:43:00,31.5,26.9,29.75,NW,316,11.0,16.0,83,0.00,,,0.01,Wunderground v.1.15,2013-04-20 02:43:00,
2013-04-19 21:44:00,31.5,26.9,29.75,NW,321,12.0,16.0,83,0.00,,,0.01,Wunderground v.1.15,2013-04-20 02:44:00,
2013-04-19 21:46:00,31.5,27.2,29.75,NW,308,13.0,16.0,84,0.00,,,0.01,Wunderground v.1.15,2013-04-20 02:46:00,
2013-04-19 21:48:00,31.3,27.0,29.75,NNW,336,10.0,12.0,84,0.00,,,0.01,Wunderground v.1.15,2013-04-20 02:48:00,
2013-04-19 21:49:00,31.3,27.0,29.75,NW,304,12.0,13.0,84,0.00,,,0.01,Wunderground v.1.15,2013-04-20 02:49:00,
2013-04-19 21:51:00,31.3,27.0,29.75,NW,321,10.0,13.0,84,0.00,,,0.01,Wunderground v.1.15,2013-04-20 02:51:00,
2013-04-19 21:52:00,31.3,26.7,29.75,NW,312,14.0,17.0,83,0.00,,,0.01,Wunderground v.1.15,2013-04-20 02:52:00,
2013-04-19 21:54:00,31.3,26.4,29.75,NW,313,13.0,17.0,82,0.00,,,0.01,Wunderground v.1.15,2013-04-20 02:54:00,
2013-04-19 21:55:00,31.3,26.4,29.75,NW,323,13.0,17.0,82,0.00,,,0.01,Wunderground v.1.15,2013-04-20 02:55:00,
2013-04-19 21:56:00,31.5,26.6,29.75,WNW,303,14.0,17.0,82,0.00,,,0.01,Wunderground v.1.15,2013-04-20 02:56:00,
2013-04-19 21:57:00,31.5,26.3,29.75,NW,322,11.0,17.0,81,0.00,,,0.01,Wunderground v.1.15,2013-04-20 02:57:00,
2013-04-19 22:00:00,31.6,26.1,29.75,NW,323,10.0,16.0,80,0.00,,,0.01,Wunderground v.1.15,2013-04-20 03:00:00,
2013-04-19 22:02:00,31.6,26.1,29.75,NW,309,11.0,17.0,80,0.00,,,0.01,Wunderground v.1.15,2013-04-20 03:02:00,
2013-04-19 22:03:00,31.6,25.8,29.75,NW,309,15.0,17.0,79,0.00,,,0.01,Wunderground v.1.15,2013-04-20 03:03:00,
2013-04-19 22:04:00,31.6,25.8,29.75,NW,309,16.0,18.0,79,0.00,,,0.01,Wunderground v.1.15,2013-04-20 03:04:00,
2013-04-19 22:06:00,31.6,25.8,29.75,NNW,329,10.0,18.0,79,0.00,,,0.01,Wunderground v.1.15,2013-04-20 03:06:00,
2013-04-19 22:08:00,31.5,25.4,29.75,NW,325,16.0,16.0,78,0.00,,,0.01,Wunderground v.1.15,2013-04-20 03:08:00,
2013-04-19 22:11:00,31.6,25.2,29.76,NW,316,9.0,16.0,77,0.00,,,0.01,Wunderground v.1.15,2013-04-20 03:11:00,
2013-04-19 22:12:00,31.6,25.2,29.76,NNW,340,14.0,16.0,77,0.00,,,0.01,Wunderground v.1.15,2013-04-20 03:12:00,
2013-04-19 22:14:00,31.6,24.6,29.76,NNW,337,10.0,16.0,75,0.00,,,0.01,Wunderground v.1.15,2013-04-20 03:14:00,
2013-04-19 22:15:00,31.6,24.6,29.76,North,359,10.0,17.0,75,0.00,,,0.01,Wunderground v.1.15,2013-04-20 03:15:00,
2013-04-19 22:16:00,31.6,24.6,29.76,NNW,333,13.0,19.0,75,0.00,,,0.01,Wunderground v.1.15,2013-04-20 03:16:00,
2013-04-19 22:17:00,31.6,24.6,29.76,North,0,14.0,19.0,75,0.00,,,0.01,Wunderground v.1.15,2013-04-20 03:17:00,
2013-04-19 22:19:00,31.8,24.1,29.76,NW,320,11.0,18.0,73,0.00,,,0.01,Wunderground v.1.15,2013-04-20 03:19:00,
2013-04-19 22:20:00,31.8,24.1,29.76,NW,322,11.0,18.0,73,0.00,,,0.01,Wunderground v.1.15,2013-04-20 03:20:00,
2013-04-19 22:21:00,31.8,24.1,29.76,NW,319,7.0,18.0,73,0.00,,,0.01,Wunderground v.1.15,2013-04-20 03:21:00,
2013-04-19 22:23:00,31.8,24.5,29.76,NW,326,19.0,20.0,74,0.00,,,0.01,Wunderground v.1.15,2013-04-20 03:23:00,
2013-04-19 22:24:00,31.8,24.1,29.76,WNW,299,15.0,20.0,73,0.00,,,0.01,Wunderground v.1.15,2013-04-20 03:24:00,
2013-04-19 22:25:00,31.8,24.1,29.76,NNW,328,11.0,20.0,73,0.00,,,0.01,Wunderground v.1.15,2013-04-20 03:25:00,
2013-04-19 22:28:00,31.6,23.3,29.76,NW,325,16.0,16.0,71,0.00,,,0.01,Wunderground v.1.15,2013-04-20 03:28:00,
2013-04-19 22:29:00,31.6,23.3,29.76,NNW,342,16.0,17.0,71,0.00,,,0.01,Wunderground v.1.15,2013-04-20 03:29:00,
2013-04-19 22:30:00,31.6,23.6,29.76,NNW,330,16.0,17.0,72,0.00,,,0.01,Wunderground v.1.15,2013-04-20 03:30:00,
2013-04-19 22:31:00,31.6,23.3,29.76,NNW,332,18.0,18.0,71,0.00,,,0.01,Wunderground v.1.15,2013-04-20 03:31:00,
2013-04-19 22:34:00,31.6,22.9,29.76,NNW,328,12.0,18.0,70,0.00,,,0.01,Wunderground v.1.15,2013-04-20 03:34:00,
2013-04-19 22:35:00,31.6,22.9,29.76,NNW,331,13.0,18.0,70,0.00,,,0.01,Wunderground v.1.15,2013-04-20 03:35:00,
2013-04-19 22:36:00,31.6,22.9,29.76,NNW,348,12.0,18.0,70,0.00,,,0.01,Wunderground v.1.15,2013-04-20 03:36:00,
2013-04-19 22:38:00,31.6,22.9,29.76,North,0,13.0,13.0,70,0.00,,,0.01,Wunderground v.1.15,2013-04-20 03:38:00,
2013-04-19 22:39:00,31.6,22.9,29.76,NW,321,12.0,22.0,70,0.00,,,0.01,Wunderground v.1.15,2013-04-20 03:39:00,
2013-04-19 22:40:00,31.8,22.4,29.77,NW,324,13.0,22.0,68,0.00,,,0.01,Wunderground v.1.15,2013-04-20 03:40:00,
2013-04-19 22:43:00,31.8,22.8,29.77,North,349,15.0,22.0,69,0.00,,,0.01,Wunderground v.1.15,2013-04-20 03:43:00,
2013-04-19 22:44:00,31.8,22.1,29.77,NNW,347,19.0,22.0,67,0.00,,,0.01,Wunderground v.1.15,2013-04-20 03:44:00,
2013-04-19 22:45:00,31.8,22.1,29.77,NNW,333,17.0,22.0,67,0.00,,,0.01,Wunderground v.1.15,2013-04-20 03:45:00,
2013-04-19 22:47:00,31.8,22.1,29.77,NW,324,26.0,26.0,67,0.00,,,0.01,Wunderground v.1.15,2013-04-20 03:47:00,
2013-04-19 22:49:00,31.9,21.8,29.77,North,353,16.0,16.0,66,0.00,,,0.01,Wunderground v.1.15,2013-04-20 03:49:00,
2013-04-19 22:50:00,31.9,21.8,29.77,NNW,345,11.0,21.0,66,0.00,,,0.01,Wunderground v.1.15,2013-04-20 03:50:00,
2013-04-19 22:52:00,32.1,22.0,29.77,NNW,342,16.0,21.0,66,0.00,,,0.01,Wunderground v.1.15,2013-04-20 03:52:00,
2013-04-19 22:53:00,32.1,22.0,29.77,NW,307,20.0,21.0,66,0.00,,,0.01,Wunderground v.1.15,2013-04-20 03:53:00,
2013-04-19 22:54:00,32.1,22.0,29.77,NNW,330,17.0,21.0,66,0.00,,,0.01,Wunderground v.1.15,2013-04-20 03:54:00,
2013-04-19 22:55:00,32.1,22.0,29.78,NW,324,14.0,21.0,66,0.00,,,0.01,Wunderground v.1.15,2013-04-20 03:55:00,
2013-04-19 22:56:00,32.1,22.4,29.78,NNW,348,11.0,21.0,67,0.00,,,0.01,Wunderground v.1.15,2013-04-20 03:56:00,
2013-04-19 22:57:00,32.1,22.4,29.78,NNW,339,12.0,21.0,67,0.00,,,0.01,Wunderground v.1.15,2013-04-20 03:57:00,
2013-04-19 22:58:00,32.1,22.4,29.78,NNW,334,17.0,17.0,67,0.00,,,0.01,Wunderground v.1.15,2013-04-20 03:58:00,
2013-04-19 23:01:00,31.9,22.2,29.78,NW,308,15.0,23.0,67,0.00,,,0.01,Wunderground v.1.15,2013-04-20 04:01:00,
2013-04-19 23:03:00,31.9,21.1,29.78,NNW,338,23.0,24.0,64,0.00,,,0.01,Wunderground v.1.15,2013-04-20 04:03:00,
2013-04-19 23:06:00,31.8,19.9,29.78,North,350,30.0,30.0,61,0.00,,,0.01,Wunderground v.1.15,2013-04-20 04:06:00,
2013-04-19 23:07:00,31.6,18.9,29.78,NNW,345,15.0,30.0,59,0.00,,,0.01,Wunderground v.1.15,2013-04-20 04:07:00,
2013-04-19 23:08:00,31.6,19.3,29.78,North,358,17.0,20.0,60,0.00,,,0.01,Wunderground v.1.15,2013-04-20 04:08:00,
2013-04-19 23:11:00,31.5,18.4,29.78,NNW,341,23.0,35.0,58,0.00,,,0.00,Wunderground v.1.15,2013-04-20 04:11:00,
2013-04-19 23:12:00,31.5,18.4,29.78,NNW,338,20.0,35.0,58,0.00,,,0.00,Wunderground v.1.15,2013-04-20 04:12:00,
2013-04-19 23:13:00,31.3,18.2,29.78,North,358,18.0,35.0,58,0.00,,,0.00,Wunderground v.1.15,2013-04-20 04:13:00,
2013-04-19 23:17:00,31.3,18.2,29.78,NNW,331,22.0,35.0,58,0.00,,,0.00,Wunderground v.1.15,2013-04-20 04:17:00,
2013-04-19 23:18:00,31.3,18.2,29.78,NNW,336,19.0,23.0,58,0.00,,,0.00,Wunderground v.1.15,2013-04-20 04:18:00,
2013-04-19 23:19:00,31.3,18.2,29.78,NNW,345,18.0,23.0,58,0.00,,,0.00,Wunderground v.1.15,2013-04-20 04:19:00,
2013-04-19 23:23:00,31.3,18.6,29.78,NNW,343,18.0,23.0,59,0.00,,,0.00,Wunderground v.1.15,2013-04-20 04:23:00,
2013-04-19 23:24:00,31.2,18.5,29.78,NW,310,11.0,23.0,59,0.00,,,0.00,Wunderground v.1.15,2013-04-20 04:24:00,
2013-04-19 23:29:00,31.0,18.7,29.80,NNW,332,18.0,21.0,60,0.00,,,0.00,Wunderground v.1.15,2013-04-20 04:29:00,
2013-04-19 23:31:00,31.0,18.3,29.80,North,358,28.0,28.0,59,0.00,,,0.00,Wunderground v.1.15,2013-04-20 04:31:00,
2013-04-19 23:34:00,31.0,17.9,29.80,NNW,333,15.0,28.0,58,0.00,,,0.00,Wunderground v.1.15,2013-04-20 04:34:00,
2013-04-19 23:35:00,31.0,17.9,29.80,North,356,18.0,28.0,58,0.00,,,0.00,Wunderground v.1.15,2013-04-20 04:35:00,
2013-04-19 23:36:00,31.0,17.9,29.80,NW,321,22.0,28.0,58,0.00,,,0.00,Wunderground v.1.15,2013-04-20 04:36:00,
2013-04-19 23:40:00,31.0,17.9,29.80,NNW,340,14.0,18.0,58,0.00,,,0.00,Wunderground v.1.15,2013-04-20 04:40:00,
2013-04-19 23:41:00,31.0,17.9,29.80,NNW,327,17.0,18.0,58,0.00,,,0.00,Wunderground v.1.15,2013-04-20 04:41:00,
2013-04-19 23:42:00,31.0,18.7,29.80,NNW,333,14.0,18.0,60,0.00,,,0.00,Wunderground v.1.15,2013-04-20 04:42:00,
2013-04-19 23:46:00,31.0,18.3,29.80,NNW,345,13.0,23.0,59,0.00,,,0.00,Wunderground v.1.15,2013-04-20 04:46:00,
2013-04-19 23:47:00,30.9,18.6,29.80,NNW,329,13.0,23.0,60,0.00,,,0.00,Wunderground v.1.15,2013-04-20 04:47:00,
2013-04-19 23:48:00,30.9,18.6,29.80,North,350,20.0,20.0,60,0.00,,,0.00,Wunderground v.1.15,2013-04-20 04:48:00,
2013-04-19 23:51:00,30.7,18.4,29.80,North,349,23.0,25.0,60,0.00,,,0.00,Wunderground v.1.15,2013-04-20 04:51:00,
2013-04-19 23:52:00,30.7,18.4,29.80,NNW,348,22.0,25.0,60,0.00,,,0.00,Wunderground v.1.15,2013-04-20 04:52:00,
2013-04-19 23:53:00,30.7,18.1,29.80,NW,322,18.0,25.0,59,0.00,,,0.00,Wunderground v.1.15,2013-04-20 04:53:00,
2013-04-19 23:56:00,30.7,18.1,29.81,NNW,343,12.0,26.0,59,0.00,,,0.00,Wunderground v.1.15,2013-04-20 04:56:00,
2013-04-19 23:58:00,30.6,18.0,29.81,North,359,18.0,26.0,59,0.00,,,0.00,Wunderground v.1.15,2013-04-20 04:58:00,
2013-04-19 23:59:00,30.6,18.0,29.81,NW,309,20.0,26.0,59,0.00,,,0.00,Wunderground v.1.15,2013-04-20 04:59:00,